Observation data for Clyde on 03/24/2019      Previous  Date  Next       Current Mesonet Observations  Soil Data  Daily Summary Page  Observations in Plain Language
KCL2 240501Z 16009KT 15/14 A3002 RMK A01 T01540138  RH  090%=      5-min Rain = 0
KCL2 240502Z 16008KT 15/14 A3002 RMK A01 T01540137  RH  090%=      5-min Rain = 0
KCL2 240503Z 16008KT 15/14 A3002 RMK A01 T01530137  RH  090%=      5-min Rain = 0
KCL2 240504Z 16008KT 15/14 A3002 RMK A01 T01530137  RH  090%=      5-min Rain = 0
KCL2 240505Z 16008KT 15/14 A3002 RMK A01 T01530137  RH  090%=      5-min Rain = 0
KCL2 240506Z 16008KT 15/14 A3002 RMK A01 T01530137  RH  090%=      5-min Rain = 0
KCL2 240507Z 16008KT 15/14 A3002 RMK A01 T01520137  RH  090%=      5-min Rain = 0
KCL2 240508Z 16009KT 15/14 A3002 RMK A01 T01520137  RH  091%=      5-min Rain = 0
KCL2 240509Z 16008KT 15/14 A3001 RMK A01 T01520137  RH  091%=      5-min Rain = 0
KCL2 240510Z 16008KT 15/14 A3001 RMK A01 T01520137  RH  091%=      5-min Rain = 0
KCL2 240511Z 16009KT 15/14 A3001 RMK A01 T01520137  RH  091%=      5-min Rain = 0
KCL2 240512Z 16008KT 15/14 A3002 RMK A01 T01520137  RH  091%=      5-min Rain = 0
KCL2 240513Z 16008KT 15/14 A3001 RMK A01 T01520137  RH  091%=      5-min Rain = 0
KCL2 240514Z 16009KT 15/14 A3001 RMK A01 T01520137  RH  091%=      5-min Rain = 0
KCL2 240515Z 16007KT 15/14 A3001 RMK A01 T01520137  RH  091%=      5-min Rain = 0
KCL2 240516Z 16008KT 15/14 A3001 RMK A01 T01520136  RH  090%=      5-min Rain = 0
KCL2 240517Z 16007KT 15/14 A3001 RMK A01 T01510136  RH  091%=      5-min Rain = 0
KCL2 240518Z 16008KT 15/14 A3001 RMK A01 T01510136  RH  091%=      5-min Rain = 0
KCL2 240519Z 16009KT 15/14 A3002 RMK A01 T01510137  RH  091%=      5-min Rain = 0
KCL2 240520Z 16008KT 15/14 A3001 RMK A01 T01500136  RH  091%=      5-min Rain = 0
KCL2 240521Z 16008KT 15/14 A3001 RMK A01 T01510136  RH  091%=      5-min Rain = 0
KCL2 240522Z 16008KT 15/14 A3002 RMK A01 T01510136  RH  091%=      5-min Rain = 0
KCL2 240523Z 16008KT 15/14 A3002 RMK A01 T01510136  RH  091%=      5-min Rain = 0
KCL2 240524Z 16008KT 15/14 A3002 RMK A01 T01510136  RH  091%=      5-min Rain = 0
KCL2 240525Z 16009KT 15/14 A3002 RMK A01 T01510136  RH  091%=      5-min Rain = 0
KCL2 240526Z 15008KT 15/14 A3001 RMK A01 T01500136  RH  091%=      5-min Rain = 0
KCL2 240527Z 16008KT 15/14 A3002 RMK A01 T01500136  RH  091%=      5-min Rain = 0
KCL2 240528Z 16008KT 15/14 A3002 RMK A01 T01500136  RH  092%=      5-min Rain = 0
KCL2 240529Z 16007KT 15/14 A3002 RMK A01 T01500136  RH  092%=      5-min Rain = 0
KCL2 240530Z 16008KT 15/14 A3002 RMK A01 T01490136  RH  091%=      5-min Rain = 0
KCL2 240531Z 15008KT 15/14 A3002 RMK A01 T01490136  RH  092%=      5-min Rain = 0
KCL2 240532Z 15008KT 15/14 A3002 RMK A01 T01490136  RH  092%=      5-min Rain = 0
KCL2 240533Z 16008KT 15/14 A3002 RMK A01 T01490136  RH  092%=      5-min Rain = 0
KCL2 240534Z 16007KT 15/14 A3002 RMK A01 T01490137  RH  092%=      5-min Rain = 0
KCL2 240535Z 15007KT 15/14 A3002 RMK A01 T01490136  RH  092%=      5-min Rain = 0
KCL2 240536Z 16007KT 15/14 A3002 RMK A01 T01490137  RH  092%=      5-min Rain = 0
KCL2 240537Z 16007KT 15/14 A3002 RMK A01 T01490136  RH  092%=      5-min Rain = 0
KCL2 240538Z 16008KT 15/14 A3002 RMK A01 T01490137  RH  092%=      5-min Rain = 0
KCL2 240539Z 16008KT 15/14 A3002 RMK A01 T01490137  RH  093%=      5-min Rain = 0
KCL2 240540Z 16009KT 15/14 A3002 RMK A01 T01490137  RH  093%=      5-min Rain = 0
KCL2 240541Z 16007KT 15/14 A3002 RMK A01 T01490137  RH  093%=      5-min Rain = 0
KCL2 240542Z 16008KT 15/14 A3002 RMK A01 T01490136  RH  092%=      5-min Rain = 0
KCL2 240543Z 16008KT 15/14 A3002 RMK A01 T01480136  RH  092%=      5-min Rain = 0
KCL2 240544Z 16008KT 15/14 A3002 RMK A01 T01480136  RH  093%=      5-min Rain = 0
KCL2 240545Z 16008KT 15/14 A3002 RMK A01 T01480137  RH  093%=      5-min Rain = 0
KCL2 240546Z 16008KT 15/14 A3002 RMK A01 T01480137  RH  093%=      5-min Rain = 0
KCL2 240547Z 16008KT 15/14 A3002 RMK A01 T01480137  RH  093%=      5-min Rain = 0
KCL2 240548Z 16009KT 15/14 A3002 RMK A01 T01480137  RH  093%=      5-min Rain = 0
KCL2 240549Z 16007KT 15/14 A3002 RMK A01 T01480137  RH  093%=      5-min Rain = 0
KCL2 240550Z 15008KT 15/14 A3002 RMK A01 T01480136  RH  093%=      5-min Rain = 0
KCL2 240551Z 16008KT 15/14 A3002 RMK A01 T01470137  RH  094%=      5-min Rain = 0
KCL2 240552Z 16010KT 15/14 A3002 RMK A01 T01470137  RH  093%=      5-min Rain = 0
KCL2 240553Z 16009KT 15/14 A3002 RMK A01 T01470137  RH  094%=      5-min Rain = 0
KCL2 240554Z 16009KT 15/14 A3002 RMK A01 T01470137  RH  094%=      5-min Rain = 0
KCL2 240555Z 16009KT 15/14 A3002 RMK A01 T01470137  RH  094%=      5-min Rain = 0
KCL2 240556Z 16009KT 15/14 A3002 RMK A01 T01470137  RH  094%=      5-min Rain = 0
KCL2 240557Z 17009KT 15/14 A3002 RMK A01 T01470137  RH  094%=      5-min Rain = 0
KCL2 240558Z 16010KT 15/14 A3002 RMK A01 T01470137  RH  094%=      5-min Rain = 0
KCL2 240559Z 16010KT 15/14 A3002 RMK A01 T01470138  RH  094%=      5-min Rain = 0
KCL2 240600Z 16010KT 15/14 A3002 RMK A01 T01470137  RH  094%=      5-min Rain = 0
KCL2 240601Z 16010KT 15/14 A3002 RMK A01 T01480137  RH  093%=      5-min Rain = 0
KCL2 240602Z 16011KT 15/14 A3002 RMK A01 T01480138  RH  093%=      5-min Rain = 0
KCL2 240603Z 16010KT 15/14 A3002 RMK A01 T01490137  RH  093%=      5-min Rain = 0
KCL2 240604Z 16010KT 15/14 A3001 RMK A01 T01490137  RH  093%=      5-min Rain = 0
KCL2 240605Z 16010KT 15/14 A3002 RMK A01 T01480137  RH  093%=      5-min Rain = 0
KCL2 240606Z 16010KT 15/14 A3002 RMK A01 T01480137  RH  093%=      5-min Rain = 0
KCL2 240607Z 16010KT 15/14 A3002 RMK A01 T01480137  RH  093%=      5-min Rain = 0
KCL2 240608Z 16010KT 15/14 A3001 RMK A01 T01480137  RH  093%=      5-min Rain = 0
KCL2 240609Z 16011KT 15/14 A3001 RMK A01 T01480137  RH  093%=      5-min Rain = 0
KCL2 240610Z 16011KT 15/14 A3001 RMK A01 T01480137  RH  093%=      5-min Rain = 0
KCL2 240611Z 16011KT 15/14 A3001 RMK A01 T01480137  RH  093%=      5-min Rain = 0
KCL2 240612Z 16012KT 15/14 A3001 RMK A01 T01480137  RH  093%=      5-min Rain = 0
KCL2 240613Z 16010KT 15/14 A3001 RMK A01 T01480136  RH  093%=      5-min Rain = 0
KCL2 240614Z 16011KT 15/14 A3001 RMK A01 T01470136  RH  093%=      5-min Rain = 0
KCL2 240615Z 16011KT 15/14 A3001 RMK A01 T01470136  RH  093%=      5-min Rain = 0
KCL2 240616Z 16010KT 15/14 A3001 RMK A01 T01470136  RH  093%=      5-min Rain = 0
KCL2 240617Z 16011KT 15/14 A3001 RMK A01 T01460136  RH  094%=      5-min Rain = 0
KCL2 240618Z 16011KT 15/14 A3001 RMK A01 T01470136  RH  094%=      5-min Rain = 0
KCL2 240619Z 16011KT 15/14 A3001 RMK A01 T01470136  RH  093%=      5-min Rain = 0
KCL2 240620Z 16010KT 15/14 A3001 RMK A01 T01460136  RH  093%=      5-min Rain = 0
KCL2 240621Z 17011KT 15/14 A3001 RMK A01 T01460136  RH  093%=      5-min Rain = 0
KCL2 240622Z 16011KT 15/14 A3001 RMK A01 T01460136  RH  093%=      5-min Rain = 0
KCL2 240623Z 16010KT 15/14 A3001 RMK A01 T01460136  RH  093%=      5-min Rain = 0
KCL2 240624Z 17010KT 15/14 A3001 RMK A01 T01460136  RH  094%=      5-min Rain = 0
KCL2 240625Z 16011KT 15/14 A3001 RMK A01 T01460136  RH  094%=      5-min Rain = 0
KCL2 240626Z 17011KT 15/14 A3001 RMK A01 T01460136  RH  094%=      5-min Rain = 0
KCL2 240627Z 16010KT 15/14 A3001 RMK A01 T01460136  RH  093%=      5-min Rain = 0
KCL2 240628Z 17011KT 15/14 A3001 RMK A01 T01460136  RH  094%=      5-min Rain = 0
KCL2 240629Z 17010KT 15/14 A3001 RMK A01 T01460136  RH  094%=      5-min Rain = 0
KCL2 240630Z 17011KT 15/14 A3001 RMK A01 T01460135  RH  093%=      5-min Rain = 0
KCL2 240631Z 17012KT 15/14 A3001 RMK A01 T01450135  RH  094%=      5-min Rain = 0
KCL2 240632Z 17011KT 15/14 A3001 RMK A01 T01450136  RH  094%=      5-min Rain = 0
KCL2 240633Z 17010KT 15/14 A3001 RMK A01 T01450135  RH  094%=      5-min Rain = 0
KCL2 240634Z 17009KT 15/14 A3001 RMK A01 T01460135  RH  094%=      5-min Rain = 0
KCL2 240635Z 17010KT 15/14 A3001 RMK A01 T01460135  RH  094%=      5-min Rain = 0
KCL2 240636Z 17010KT 15/14 A3001 RMK A01 T01450135  RH  094%=      5-min Rain = 0
KCL2 240637Z 17010KT 15/14 A3001 RMK A01 T01450135  RH  094%=      5-min Rain = 0
KCL2 240638Z 17010KT 15/14 A3001 RMK A01 T01450135  RH  094%=      5-min Rain = 0
KCL2 240639Z 17010KT 15/14 A3001 RMK A01 T01450135  RH  094%=      5-min Rain = 0
KCL2 240640Z 17010KT 15/14 A3001 RMK A01 T01450135  RH  094%=      5-min Rain = 0
KCL2 240641Z 17010KT 15/14 A3001 RMK A01 T01450135  RH  094%=      5-min Rain = 0
KCL2 240642Z 17011KT 15/14 A3001 RMK A01 T01450135  RH  094%=      5-min Rain = 0
KCL2 240643Z 17009KT 15/14 A3001 RMK A01 T01450135  RH  094%=      5-min Rain = 0
KCL2 240644Z 17011KT 15/14 A3001 RMK A01 T01450135  RH  094%=      5-min Rain = 0
KCL2 240645Z 17010KT 15/14 A3001 RMK A01 T01450135  RH  094%=      5-min Rain = 0
KCL2 240646Z 17010G15KT 15/14 A3001 RMK A01 T01450135  RH  094%=      5-min Rain = 0
KCL2 240647Z 17011KT 15/14 A3001 RMK A01 T01450135  RH  094%=      5-min Rain = 0
KCL2 240648Z 17010KT 15/14 A3001 RMK A01 T01450135  RH  094%=      5-min Rain = 0
KCL2 240649Z 17010KT 15/14 A3001 RMK A01 T01450135  RH  094%=      5-min Rain = 0
KCL2 240650Z 17010KT 14/14 A3001 RMK A01 T01440135  RH  094%=      5-min Rain = 0
KCL2 240651Z 17009KT 15/14 A3001 RMK A01 T01450135  RH  094%=      5-min Rain = 0
KCL2 240652Z 17009KT 15/14 A3001 RMK A01 T01450135  RH  094%=      5-min Rain = 0
KCL2 240653Z 17010KT 15/13 A3001 RMK A01 T01450134  RH  094%=      5-min Rain = 0
KCL2 240654Z 17009KT 14/13 A3001 RMK A01 T01440134  RH  094%=      5-min Rain = 0
KCL2 240655Z 17011KT 14/14 A3001 RMK A01 T01440135  RH  094%=      5-min Rain = 0
KCL2 240656Z 18010KT 14/13 A3001 RMK A01 T01440134  RH  094%=      5-min Rain = 0
KCL2 240657Z 17010KT 14/13 A3001 RMK A01 T01430134  RH  094%=      5-min Rain = 0
KCL2 240658Z 18010KT 14/13 A3001 RMK A01 T01430134  RH  094%=      5-min Rain = 0
KCL2 240659Z 18011KT 14/13 A3001 RMK A01 T01430134  RH  094%=      5-min Rain = 0
KCL2 240700Z 18010KT 14/13 A3001 RMK A01 T01430134  RH  094%=      5-min Rain = 0
KCL2 240701Z 18009KT 14/13 A3001 RMK A01 T01430134  RH  094%=      5-min Rain = 0
KCL2 240702Z 18010KT 14/13 A3001 RMK A01 T01420133  RH  094%=      5-min Rain = 0
KCL2 240703Z 17010KT 14/13 A3001 RMK A01 T01420134  RH  095%=      5-min Rain = 0
KCL2 240704Z 17009KT 14/13 A3001 RMK A01 T01410133  RH  095%=      5-min Rain = 0
KCL2 240705Z 18010KT 14/13 A3001 RMK A01 T01410133  RH  095%=      5-min Rain = 0
KCL2 240706Z 18009KT 14/13 A3001 RMK A01 T01410133  RH  095%=      5-min Rain = 0
KCL2 240707Z 17009KT 14/13 A3001 RMK A01 T01410133  RH  095%=      5-min Rain = 0
KCL2 240708Z 18009KT 14/13 A3001 RMK A01 T01410133  RH  095%=      5-min Rain = 0
KCL2 240709Z 17009KT 14/13 A3001 RMK A01 T01400132  RH  095%=      5-min Rain = 0
KCL2 240710Z 18009KT 14/13 A3001 RMK A01 T01390132  RH  096%=      5-min Rain = 0
KCL2 240711Z 18008KT 14/13 A3001 RMK A01 T01400133  RH  095%=      5-min Rain = 0
KCL2 240712Z 17010KT 14/13 A3001 RMK A01 T01390132  RH  095%=      5-min Rain = 0
KCL2 240713Z 18010KT 14/13 A3001 RMK A01 T01390132  RH  096%=      5-min Rain = 0
KCL2 240714Z 17009KT 14/13 A3001 RMK A01 T01390132  RH  096%=      5-min Rain = 0
KCL2 240715Z 17009KT 14/13 A3001 RMK A01 T01390132  RH  095%=      5-min Rain = 0
KCL2 240716Z 17009KT 14/13 A3001 RMK A01 T01390132  RH  096%=      5-min Rain = 0
KCL2 240717Z 18010KT 14/13 A3001 RMK A01 T01390132  RH  096%=      5-min Rain = 0
KCL2 240718Z 17009KT 14/13 A3001 RMK A01 T01390132  RH  096%=      5-min Rain = 0
KCL2 240719Z 17010KT 14/13 A3001 RMK A01 T01390132  RH  096%=      5-min Rain = 0
KCL2 240720Z 17009KT 14/13 A3001 RMK A01 T01390132  RH  096%=      5-min Rain = 0
KCL2 240721Z 18010KT 14/13 A3001 RMK A01 T01390132  RH  096%=      5-min Rain = 0
KCL2 240722Z 17010KT 14/13 A3001 RMK A01 T01390132  RH  096%=      5-min Rain = 0
KCL2 240723Z 17009KT 14/13 A3001 RMK A01 T01380132  RH  096%=      5-min Rain = 0
KCL2 240724Z 18010KT 14/13 A3001 RMK A01 T01390132  RH  096%=      5-min Rain = 0
KCL2 240725Z 17009KT 14/13 A3001 RMK A01 T01390132  RH  096%=      5-min Rain = 0
KCL2 240726Z 17010KT 14/13 A3001 RMK A01 T01390132  RH  096%=      5-min Rain = 0
KCL2 240727Z 17009KT 14/13 A3001 RMK A01 T01390133  RH  096%=      5-min Rain = 0
KCL2 240728Z 18009KT 14/13 A3001 RMK A01 T01390132  RH  096%=      5-min Rain = 0
KCL2 240729Z 17009KT 14/13 A3001 RMK A01 T01390132  RH  095%=      5-min Rain = 0
KCL2 240730Z 17009KT 14/13 A3002 RMK A01 T01390132  RH  096%=      5-min Rain = 0
KCL2 240731Z 17008KT 14/13 A3002 RMK A01 T01400133  RH  095%=      5-min Rain = 0
KCL2 240732Z 17008KT 14/13 A3002 RMK A01 T01390132  RH  095%=      5-min Rain = 0
KCL2 240733Z 17007KT 14/13 A3002 RMK A01 T01390132  RH  095%=      5-min Rain = 0
KCL2 240734Z 17008KT 14/13 A3001 RMK A01 T01380132  RH  096%=      5-min Rain = 0
KCL2 240735Z 17009KT 14/13 A3001 RMK A01 T01380132  RH  096%=      5-min Rain = 0
KCL2 240736Z 17007KT 14/13 A3001 RMK A01 T01390132  RH  096%=      5-min Rain = 0
KCL2 240737Z 17008KT 14/13 A3001 RMK A01 T01380131  RH  096%=      5-min Rain = 0
KCL2 240738Z 17008KT 14/13 A3001 RMK A01 T01380131  RH  096%=      5-min Rain = 0
KCL2 240739Z 17009KT 14/13 A3001 RMK A01 T01370131  RH  096%=      5-min Rain = 0
KCL2 240740Z 17009KT 14/13 A3001 RMK A01 T01370131  RH  096%=      5-min Rain = 0
KCL2 240741Z 17009KT 14/13 A3001 RMK A01 T01370132  RH  096%=      5-min Rain = 0
KCL2 240742Z 17008KT 14/13 A3001 RMK A01 T01380132  RH  096%=      5-min Rain = 0
KCL2 240743Z 17009KT 14/13 A3001 RMK A01 T01370131  RH  096%=      5-min Rain = 0
KCL2 240744Z 18009KT 14/13 A3001 RMK A01 T01370131  RH  096%=      5-min Rain = 0
KCL2 240745Z 17010KT 14/13 A3001 RMK A01 T01370131  RH  096%=      5-min Rain = 0
KCL2 240746Z 18010KT 14/13 A3001 RMK A01 T01370131  RH  096%=      5-min Rain = 0
KCL2 240747Z 18011KT 14/13 A3001 RMK A01 T01370132  RH  096%=      5-min Rain = 0
KCL2 240748Z 18011KT 14/13 A3001 RMK A01 T01380132  RH  096%=      5-min Rain = 0
KCL2 240749Z 18011KT 14/13 A3001 RMK A01 T01380132  RH  096%=      5-min Rain = 0
KCL2 240750Z 18011KT 14/13 A3001 RMK A01 T01390132  RH  096%=      5-min Rain = 0
KCL2 240751Z 18010KT 14/13 A3001 RMK A01 T01390132  RH  096%=      5-min Rain = 0
KCL2 240752Z 18011KT 14/13 A3001 RMK A01 T01390133  RH  096%=      5-min Rain = 0
KCL2 240753Z 18012KT 14/13 A3001 RMK A01 T01400133  RH  096%=      5-min Rain = 0
KCL2 240754Z 18009KT 14/13 A3001 RMK A01 T01400133  RH  096%=      5-min Rain = 0
KCL2 240755Z 18010KT 14/13 A3001 RMK A01 T01400133  RH  095%=      5-min Rain = 0
KCL2 240756Z 18011KT 14/13 A3001 RMK A01 T01400133  RH  095%=      5-min Rain = 0
KCL2 240757Z 18011KT 14/13 A3001 RMK A01 T01390132  RH  096%=      5-min Rain = 0
KCL2 240758Z 18011KT 14/13 A3001 RMK A01 T01400132  RH  095%=      5-min Rain = 0
KCL2 240759Z 18011KT 14/13 A3001 RMK A01 T01400133  RH  095%=      5-min Rain = 0
KCL2 240800Z 18010KT 14/13 A3001 RMK A01 T01410133  RH  095%=      5-min Rain = 0
KCL2 240801Z 18008KT 14/13 A3001 RMK A01 T01400133  RH  095%=      5-min Rain = 0
KCL2 240802Z 18010KT 14/13 A3001 RMK A01 T01400132  RH  095%=      5-min Rain = 0
KCL2 240803Z 18010KT 14/13 A3001 RMK A01 T01400132  RH  095%=      5-min Rain = 0
KCL2 240804Z 18010KT 14/13 A3001 RMK A01 T01400133  RH  096%=      5-min Rain = 0
KCL2 240805Z 18009KT 14/13 A3001 RMK A01 T01390132  RH  095%=      5-min Rain = 0
KCL2 240806Z 18009KT 14/13 A3001 RMK A01 T01390132  RH  095%=      5-min Rain = 0
KCL2 240807Z 18009KT 14/13 A3001 RMK A01 T01390132  RH  095%=      5-min Rain = 0
KCL2 240808Z 18010KT 14/13 A3001 RMK A01 T01390132  RH  095%=      5-min Rain = 0
KCL2 240809Z 18009KT 14/13 A3001 RMK A01 T01380132  RH  096%=      5-min Rain = 0
KCL2 240810Z 18009KT 14/13 A3001 RMK A01 T01380132  RH  096%=      5-min Rain = 0
KCL2 240811Z 18009KT 14/13 A3001 RMK A01 T01380132  RH  096%=      5-min Rain = 0
KCL2 240812Z 18009KT 14/13 A3001 RMK A01 T01380132  RH  096%=      5-min Rain = 0
KCL2 240813Z 18008KT 14/13 A3001 RMK A01 T01380132  RH  096%=      5-min Rain = 0
KCL2 240814Z 18009KT 14/13 A3001 RMK A01 T01380132  RH  096%=      5-min Rain = 0
KCL2 240815Z 18008KT 14/13 A3001 RMK A01 T01380131  RH  096%=      5-min Rain = 0
KCL2 240816Z 18008KT 14/13 A3001 RMK A01 T01380131  RH  096%=      5-min Rain = 0
KCL2 240817Z 18008KT 14/13 A3001 RMK A01 T01380131  RH  096%=      5-min Rain = 0
KCL2 240818Z 18008KT 14/13 A3001 RMK A01 T01370130  RH  096%=      5-min Rain = 0
KCL2 240819Z 18008KT 14/13 A3001 RMK A01 T01370130  RH  096%=      5-min Rain = 0
KCL2 240820Z 18008KT 14/13 A3001 RMK A01 T01370131  RH  096%=      5-min Rain = 0
KCL2 240821Z 18008KT 14/13 A3001 RMK A01 T01370131  RH  096%=      5-min Rain = 0
KCL2 240822Z 18008KT 14/13 A3001 RMK A01 T01370131  RH  096%=      5-min Rain = 0
KCL2 240823Z 18008KT 14/13 A3001 RMK A01 T01360130  RH  096%=      5-min Rain = 0
KCL2 240824Z 18008KT 14/13 A3001 RMK A01 T01360131  RH  096%=      5-min Rain = 0
KCL2 240825Z 18008KT 14/13 A3001 RMK A01 T01360130  RH  096%=      5-min Rain = 0
KCL2 240826Z 18009KT 14/13 A3001 RMK A01 T01360130  RH  096%=      5-min Rain = 0
KCL2 240827Z 18008KT 14/13 A3001 RMK A01 T01360131  RH  096%=      5-min Rain = 0
KCL2 240828Z 18009KT 14/13 A3001 RMK A01 T01360131  RH  096%=      5-min Rain = 0
KCL2 240829Z 18009KT 14/13 A3001 RMK A01 T01360131  RH  096%=      5-min Rain = 0
KCL2 240830Z 18009KT 14/13 A3001 RMK A01 T01360131  RH  096%=      5-min Rain = 0
KCL2 240831Z 18010KT 14/13 A3001 RMK A01 T01360131  RH  096%=      5-min Rain = 0
KCL2 240832Z 18009KT 14/13 A3001 RMK A01 T01360131  RH  096%=      5-min Rain = 0
KCL2 240833Z 18009KT 14/13 A3001 RMK A01 T01370131  RH  097%=      5-min Rain = 0
KCL2 240834Z 18009KT 14/13 A3001 RMK A01 T01370131  RH  096%=      5-min Rain = 0
KCL2 240835Z 18010KT 14/13 A3001 RMK A01 T01370131  RH  096%=      5-min Rain = 0
KCL2 240836Z 18009KT 14/13 A3001 RMK A01 T01370132  RH  097%=      5-min Rain = 0
KCL2 240837Z 18009KT 14/13 A3001 RMK A01 T01370131  RH  097%=      5-min Rain = 0
KCL2 240838Z 18010KT 14/13 A3001 RMK A01 T01370132  RH  097%=      5-min Rain = 0
KCL2 240839Z 18009KT 14/13 A3001 RMK A01 T01380132  RH  097%=      5-min Rain = 0
KCL2 240840Z 18010KT 14/13 A3001 RMK A01 T01380132  RH  096%=      5-min Rain = 0
KCL2 240841Z 19009KT 14/13 A3001 RMK A01 T01380132  RH  096%=      5-min Rain = 0
KCL2 240842Z 19009KT 14/13 A3001 RMK A01 T01380133  RH  097%=      5-min Rain = 0
KCL2 240843Z 19009KT 14/13 A3001 RMK A01 T01390133  RH  096%=      5-min Rain = 0
KCL2 240844Z 19009KT 14/13 A3001 RMK A01 T01390133  RH  096%=      5-min Rain = 0
KCL2 240845Z 19009KT 14/13 A3001 RMK A01 T01390133  RH  096%=      5-min Rain = 0
KCL2 240846Z 19009KT 14/13 A3001 RMK A01 T01390133  RH  096%=      5-min Rain = 0
KCL2 240847Z 19009KT 14/13 A3001 RMK A01 T01390133  RH  096%=      5-min Rain = 0
KCL2 240848Z 19010KT 14/13 A3001 RMK A01 T01400134  RH  096%=      5-min Rain = 0
KCL2 240849Z 19009KT 14/13 A3001 RMK A01 T01410134  RH  096%=      5-min Rain = 0
KCL2 240850Z 19010KT 14/13 A3001 RMK A01 T01410134  RH  096%=      5-min Rain = 0
KCL2 240851Z 19011KT 14/14 A3001 RMK A01 T01420135  RH  095%=      5-min Rain = 0
KCL2 240852Z 19011KT 14/14 A3001 RMK A01 T01430135  RH  095%=      5-min Rain = 0
KCL2 240853Z 19011KT 14/14 A3001 RMK A01 T01430135  RH  095%=      5-min Rain = 0
KCL2 240854Z 20009KT 14/14 A3001 RMK A01 T01430135  RH  095%=      5-min Rain = 0
KCL2 240855Z 19011KT 14/14 A3001 RMK A01 T01440135  RH  094%=      5-min Rain = 0
KCL2 240856Z 19012KT 14/14 A3001 RMK A01 T01440135  RH  095%=      5-min Rain = 0
KCL2 240857Z 19011KT 15/14 A3001 RMK A01 T01450136  RH  095%=      5-min Rain = 0
KCL2 240858Z 19011KT 15/14 A3001 RMK A01 T01460137  RH  094%=      5-min Rain = 0
KCL2 240859Z 19011KT 15/14 A3001 RMK A01 T01460136  RH  094%=      5-min Rain = 0
KCL2 240900Z 19010KT 15/14 A3001 RMK A01 T01460136  RH  094%=      5-min Rain = 0
KCL2 240901Z 19010KT 15/14 A3001 RMK A01 T01460136  RH  094%=      5-min Rain = 0
KCL2 240902Z 19009KT 15/14 A3001 RMK A01 T01460136  RH  094%=      5-min Rain = 0
KCL2 240903Z 19010KT 15/14 A3001 RMK A01 T01460136  RH  094%=      5-min Rain = 0
KCL2 240904Z 19010KT 15/14 A3001 RMK A01 T01460136  RH  094%=      5-min Rain = 0
KCL2 240905Z 19010KT 15/14 A3001 RMK A01 T01470137  RH  094%=      5-min Rain = 0
KCL2 240906Z 19011KT 15/14 A3001 RMK A01 T01470137  RH  094%=      5-min Rain = 0
KCL2 240907Z 19011KT 15/14 A3001 RMK A01 T01470137  RH  094%=      5-min Rain = 0
KCL2 240908Z 19009KT 15/14 A3001 RMK A01 T01470137  RH  094%=      5-min Rain = 0
KCL2 240909Z 20011KT 15/14 A3001 RMK A01 T01480138  RH  094%=      5-min Rain = 0
KCL2 240910Z 20010KT 15/14 A3001 RMK A01 T01490138  RH  093%=      5-min Rain = 0
KCL2 240911Z 20010KT 15/14 A3001 RMK A01 T01500138  RH  093%=      5-min Rain = 0
KCL2 240912Z 20010KT 15/14 A3001 RMK A01 T01510139  RH  093%=      5-min Rain = 0
KCL2 240913Z 20010KT 15/14 A3001 RMK A01 T01520140  RH  092%=      5-min Rain = 0
KCL2 240914Z 20010KT 15/14 A3001 RMK A01 T01530140  RH  092%=      5-min Rain = 0
KCL2 240915Z 20009KT 15/14 A3001 RMK A01 T01530139  RH  092%=      5-min Rain = 0
KCL2 240916Z 20009KT 15/14 A3001 RMK A01 T01530139  RH  092%=      5-min Rain = 0
KCL2 240917Z 20011KT 15/14 A3001 RMK A01 T01530139  RH  092%=      5-min Rain = 0
KCL2 240918Z 20011KT 15/14 A3001 RMK A01 T01540141  RH  092%=      5-min Rain = 0
KCL2 240919Z 20010KT 16/14 A3001 RMK A01 T01550140  RH  091%=      5-min Rain = 0
KCL2 240920Z 20009KT 16/14 A3001 RMK A01 T01550140  RH  091%=      5-min Rain = 0
KCL2 240921Z 20009KT 16/14 A3001 RMK A01 T01550140  RH  091%=      5-min Rain = 0
KCL2 240922Z 20010KT 15/14 A3001 RMK A01 T01540140  RH  091%=      5-min Rain = 0
KCL2 240923Z 20008KT 15/14 A3001 RMK A01 T01540140  RH  091%=      5-min Rain = 0
KCL2 240924Z 20008KT 15/14 A3001 RMK A01 T01540140  RH  091%=      5-min Rain = 0
KCL2 240925Z 20009KT 15/14 A3001 RMK A01 T01530140  RH  092%=      5-min Rain = 0
KCL2 240926Z 19009KT 15/14 A3001 RMK A01 T01540140  RH  092%=      5-min Rain = 0
KCL2 240927Z 19009KT 15/14 A3001 RMK A01 T01540140  RH  092%=      5-min Rain = 0
KCL2 240928Z 19010KT 15/14 A3001 RMK A01 T01540140  RH  091%=      5-min Rain = 0
KCL2 240929Z 19011KT 15/14 A3001 RMK A01 T01540140  RH  092%=      5-min Rain = 0
KCL2 240930Z 19009KT 16/14 A3001 RMK A01 T01550141  RH  092%=      5-min Rain = 0
KCL2 240931Z 19010KT 16/14 A3001 RMK A01 T01550141  RH  091%=      5-min Rain = 0
KCL2 240932Z 19009KT 16/14 A3001 RMK A01 T01550141  RH  091%=      5-min Rain = 0
KCL2 240933Z 19009KT 16/14 A3001 RMK A01 T01550140  RH  091%=      5-min Rain = 0
KCL2 240934Z 19008KT 16/14 A3001 RMK A01 T01550140  RH  091%=      5-min Rain = 0
KCL2 240935Z 19008KT 16/14 A3001 RMK A01 T01550140  RH  091%=      5-min Rain = 0
KCL2 240936Z 19010KT 16/14 A3001 RMK A01 T01550141  RH  091%=      5-min Rain = 0
KCL2 240937Z 20009KT 16/14 A3001 RMK A01 T01550141  RH  091%=      5-min Rain = 0
KCL2 240938Z 20009KT 16/14 A3001 RMK A01 T01550141  RH  091%=      5-min Rain = 0
KCL2 240939Z 20008KT 16/14 A3001 RMK A01 T01550141  RH  091%=      5-min Rain = 0
KCL2 240940Z 20008KT 16/14 A3001 RMK A01 T01560141  RH  091%=      5-min Rain = 0
KCL2 240941Z 19009KT 16/14 A3001 RMK A01 T01560141  RH  091%=      5-min Rain = 0
KCL2 240942Z 20007KT 16/14 A3001 RMK A01 T01550140  RH  091%=      5-min Rain = 0
KCL2 240943Z 20008KT 16/14 A3001 RMK A01 T01550140  RH  091%=      5-min Rain = 0
KCL2 240944Z 19008KT 15/14 A3001 RMK A01 T01540140  RH  091%=      5-min Rain = 0
KCL2 240945Z 20009KT 15/14 A3001 RMK A01 T01540140  RH  092%=      5-min Rain = 0
KCL2 240946Z 20009KT 15/14 A3001 RMK A01 T01540141  RH  092%=      5-min Rain = 0
KCL2 240947Z 20010KT 15/14 A3001 RMK A01 T01540141  RH  092%=      5-min Rain = 0
KCL2 240948Z 20010KT 16/14 A3001 RMK A01 T01550141  RH  092%=      5-min Rain = 0
KCL2 240949Z 20008KT 16/14 A3001 RMK A01 T01550141  RH  091%=      5-min Rain = 0
KCL2 240950Z 20009KT 16/14 A3001 RMK A01 T01550141  RH  091%=      5-min Rain = 0
KCL2 240951Z 20008KT 16/14 A3001 RMK A01 T01550141  RH  091%=      5-min Rain = 0
KCL2 240952Z 20009KT 16/14 A3001 RMK A01 T01550141  RH  091%=      5-min Rain = 0
KCL2 240953Z 20009KT 16/14 A3001 RMK A01 T01550141  RH  091%=      5-min Rain = 0
KCL2 240954Z 20008KT 15/14 A3001 RMK A01 T01540140  RH  091%=      5-min Rain = 0
KCL2 240955Z 20009KT 15/14 A3001 RMK A01 T01540141  RH  092%=      5-min Rain = 0
KCL2 240956Z 20007KT 15/14 A3001 RMK A01 T01540141  RH  092%=      5-min Rain = 0
KCL2 240957Z 20008KT 15/14 A3001 RMK A01 T01530140  RH  092%=      5-min Rain = 0
KCL2 240958Z 19008KT 15/14 A3001 RMK A01 T01530140  RH  092%=      5-min Rain = 0
KCL2 240959Z 19008KT 15/14 A3001 RMK A01 T01530140  RH  092%=      5-min Rain = 0
KCL2 241000Z 19007KT 15/14 A3001 RMK A01 T01530140  RH  092%=      5-min Rain = 0
KCL2 241001Z 20008KT 15/14 A3001 RMK A01 T01530140  RH  092%=      5-min Rain = 0
KCL2 241002Z 20007KT 15/14 A3001 RMK A01 T01530140  RH  092%=      5-min Rain = 0
KCL2 241003Z 19007KT 15/14 A3001 RMK A01 T01530140  RH  092%=      5-min Rain = 0
KCL2 241004Z 20007KT 15/14 A3001 RMK A01 T01530140  RH  092%=      5-min Rain = 0
KCL2 241005Z 20007KT 15/14 A3001 RMK A01 T01520139  RH  092%=      5-min Rain = 0
KCL2 241006Z 19007KT 15/14 A3001 RMK A01 T01520140  RH  093%=      5-min Rain = 0
KCL2 241007Z 20008KT 15/14 A3001 RMK A01 T01520140  RH  092%=      5-min Rain = 0
KCL2 241008Z 20007KT 15/14 A3001 RMK A01 T01520140  RH  093%=      5-min Rain = 0
KCL2 241009Z 20007KT 15/14 A3001 RMK A01 T01520140  RH  093%=      5-min Rain = 0
KCL2 241010Z 20007KT 15/14 A3001 RMK A01 T01510140  RH  093%=      5-min Rain = 0
KCL2 241011Z 19007KT 15/14 A3001 RMK A01 T01510139  RH  092%=      5-min Rain = 0
KCL2 241012Z 19007KT 15/14 A3001 RMK A01 T01500139  RH  093%=      5-min Rain = 0
KCL2 241013Z 19008KT 15/14 A3001 RMK A01 T01500139  RH  093%=      5-min Rain = 0
KCL2 241014Z 19007KT 15/14 A3001 RMK A01 T01500139  RH  093%=      5-min Rain = 0
KCL2 241015Z 19008KT 15/14 A3001 RMK A01 T01500140  RH  093%=      5-min Rain = 0
KCL2 241016Z 19008KT 15/14 A3001 RMK A01 T01500139  RH  093%=      5-min Rain = 0
KCL2 241017Z 19008KT 15/14 A3001 RMK A01 T01500139  RH  093%=      5-min Rain = 0
KCL2 241018Z 19008KT 15/14 A3001 RMK A01 T01500140  RH  093%=      5-min Rain = 0
KCL2 241019Z 19008KT 15/14 A3001 RMK A01 T01510139  RH  093%=      5-min Rain = 0
KCL2 241020Z 19007KT 15/14 A3001 RMK A01 T01500139  RH  093%=      5-min Rain = 0
KCL2 241021Z 19008KT 15/14 A3001 RMK A01 T01500138  RH  093%=      5-min Rain = 0
KCL2 241022Z 19007KT 15/14 A3001 RMK A01 T01490139  RH  094%=      5-min Rain = 0
KCL2 241023Z 19008KT 15/14 A3001 RMK A01 T01490139  RH  093%=      5-min Rain = 0
KCL2 241024Z 19007KT 15/14 A3001 RMK A01 T01490139  RH  093%=      5-min Rain = 0
KCL2 241025Z 19008KT 15/14 A3001 RMK A01 T01490139  RH  094%=      5-min Rain = 0
KCL2 241026Z 19007KT 15/14 A3001 RMK A01 T01480138  RH  094%=      5-min Rain = 0
KCL2 241027Z 19007KT 15/14 A3001 RMK A01 T01480138  RH  094%=      5-min Rain = 0
KCL2 241028Z 19008KT 15/14 A3001 RMK A01 T01470138  RH  094%=      5-min Rain = 0
KCL2 241029Z 19008KT 15/14 A3001 RMK A01 T01470138  RH  094%=      5-min Rain = 0
KCL2 241030Z 19007KT 15/14 A3001 RMK A01 T01470138  RH  094%=      5-min Rain = 0
KCL2 241031Z 19007KT 15/14 A3001 RMK A01 T01470138  RH  094%=      5-min Rain = 0
KCL2 241032Z 19008KT 15/14 A3001 RMK A01 T01470138  RH  094%=      5-min Rain = 0
KCL2 241033Z 19008KT 15/14 A3001 RMK A01 T01480139  RH  094%=      5-min Rain = 0
KCL2 241034Z 19007KT 15/14 A3001 RMK A01 T01490140  RH  094%=      5-min Rain = 0
KCL2 241035Z 19008KT 15/14 A3001 RMK A01 T01490139  RH  094%=      5-min Rain = 0
KCL2 241036Z 19007KT 15/14 A3001 RMK A01 T01490139  RH  093%=      5-min Rain = 0
KCL2 241037Z 19008KT 15/14 A3001 RMK A01 T01490138  RH  093%=      5-min Rain = 0
KCL2 241038Z 19008KT 15/14 A3001 RMK A01 T01490139  RH  094%=      5-min Rain = 0
KCL2 241039Z 19008KT 15/14 A3001 RMK A01 T01490139  RH  094%=      5-min Rain = 0
KCL2 241040Z 19008KT 15/14 A3001 RMK A01 T01480138  RH  094%=      5-min Rain = 0
KCL2 241041Z 19008KT 15/14 A3001 RMK A01 T01480138  RH  094%=      5-min Rain = 0
KCL2 241042Z 19008KT 15/14 A3001 RMK A01 T01480138  RH  094%=      5-min Rain = 0
KCL2 241043Z 19007KT 15/14 A3001 RMK A01 T01470138  RH  094%=      5-min Rain = 0
KCL2 241044Z 19007KT 15/14 A3001 RMK A01 T01470137  RH  094%=      5-min Rain = 0
KCL2 241045Z 19008KT 15/14 A3001 RMK A01 T01460137  RH  094%=      5-min Rain = 0
KCL2 241046Z 19008KT 15/14 A3001 RMK A01 T01460138  RH  095%=      5-min Rain = 0
KCL2 241047Z 18009KT 15/14 A3001 RMK A01 T01460138  RH  095%=      5-min Rain = 0
KCL2 241048Z 19009KT 15/14 A3001 RMK A01 T01460138  RH  095%=      5-min Rain = 0
KCL2 241049Z 19008KT 15/14 A3001 RMK A01 T01460138  RH  095%=      5-min Rain = 0
KCL2 241050Z 19008KT 15/14 A3001 RMK A01 T01460138  RH  095%=      5-min Rain = 0
KCL2 241051Z 19008KT 15/14 A3001 RMK A01 T01470139  RH  095%=      5-min Rain = 0
KCL2 241052Z 19007KT 15/14 A3001 RMK A01 T01470138  RH  095%=      5-min Rain = 0
KCL2 241053Z 18008KT 15/14 A3001 RMK A01 T01460138  RH  095%=      5-min Rain = 0
KCL2 241054Z 19007KT 15/14 A3001 RMK A01 T01460138  RH  095%=      5-min Rain = 0
KCL2 241055Z 19009KT 15/14 A3001 RMK A01 T01460139  RH  095%=      5-min Rain = 0
KCL2 241056Z 19009KT 15/14 A3002 RMK A01 T01460139  RH  095%=      5-min Rain = 0
KCL2 241057Z 19008KT 15/14 A3001 RMK A01 T01470139  RH  095%=      5-min Rain = 0
KCL2 241058Z 19007KT 15/14 A3001 RMK A01 T01470139  RH  095%=      5-min Rain = 0
KCL2 241059Z 19009KT 15/14 A3002 RMK A01 T01470139  RH  095%=      5-min Rain = 0
KCL2 241100Z 18009KT 15/14 A3001 RMK A01 T01470139  RH  095%=      5-min Rain = 0
KCL2 241101Z 18008KT 15/14 A3001 RMK A01 T01470139  RH  095%=      5-min Rain = 0
KCL2 241102Z 18009KT 15/14 A3002 RMK A01 T01470139  RH  095%=      5-min Rain = 0
KCL2 241103Z 19009KT 15/14 A3001 RMK A01 T01470139  RH  095%=      5-min Rain = 0
KCL2 241104Z 18008KT 15/14 A3002 RMK A01 T01470140  RH  095%=      5-min Rain = 0
KCL2 241105Z 18010KT 15/14 A3002 RMK A01 T01470140  RH  095%=      5-min Rain = 0
KCL2 241106Z 18009KT 15/14 A3002 RMK A01 T01480140  RH  095%=      5-min Rain = 0
KCL2 241107Z 18008KT 15/14 A3002 RMK A01 T01480140  RH  095%=      5-min Rain = 0
KCL2 241108Z 18008KT 15/14 A3002 RMK A01 T01470139  RH  095%=      5-min Rain = 0
KCL2 241109Z 18010KT 15/14 A3002 RMK A01 T01460139  RH  095%=      5-min Rain = 0
KCL2 241110Z 18010KT 15/14 A3002 RMK A01 T01470140  RH  096%=      5-min Rain = 0
KCL2 241111Z 18009KT 15/14 A3002 RMK A01 T01480140  RH  095%=      5-min Rain = 0
KCL2 241112Z 19009KT 15/14 A3001 RMK A01 T01480140  RH  095%=      5-min Rain = 0
KCL2 241113Z 19010KT 15/14 A3001 RMK A01 T01480140  RH  095%=      5-min Rain = 0
KCL2 241114Z 19011KT 15/14 A3001 RMK A01 T01490141  RH  095%=      5-min Rain = 0
KCL2 241115Z 19010KT 15/14 A3002 RMK A01 T01500141  RH  095%=      5-min Rain = 0
KCL2 241116Z 18011KT 15/14 A3002 RMK A01 T01490141  RH  095%=      5-min Rain = 0
KCL2 241117Z 19011KT 15/14 A3002 RMK A01 T01500141  RH  095%=      5-min Rain = 0
KCL2 241118Z 19009KT 15/14 A3002 RMK A01 T01500141  RH  095%=      5-min Rain = 0
KCL2 241119Z 18008KT 15/14 A3002 RMK A01 T01500141  RH  095%=      5-min Rain = 0
KCL2 241120Z 19010KT 15/14 A3002 RMK A01 T01500141  RH  094%=      5-min Rain = 0
KCL2 241121Z 18009KT 15/14 A3002 RMK A01 T01490140  RH  095%=      5-min Rain = 0
KCL2 241122Z 19009KT 15/14 A3002 RMK A01 T01490141  RH  095%=      5-min Rain = 0
KCL2 241123Z 19009KT 15/14 A3002 RMK A01 T01490141  RH  095%=      5-min Rain = 0
KCL2 241124Z 18009KT 15/14 A3002 RMK A01 T01490141  RH  095%=      5-min Rain = 0
KCL2 241125Z 19010KT 15/14 A3002 RMK A01 T01490142  RH  095%=      5-min Rain = 0
KCL2 241126Z 19009KT 15/14 A3002 RMK A01 T01490141  RH  095%=      5-min Rain = 0
KCL2 241127Z 19009KT 15/14 A3002 RMK A01 T01490141  RH  095%=      5-min Rain = 0
KCL2 241128Z 18009KT 15/14 A3002 RMK A01 T01490141  RH  095%=      5-min Rain = 0
KCL2 241129Z 19009KT 15/14 A3002 RMK A01 T01490141  RH  095%=      5-min Rain = 0
KCL2 241130Z 19009KT 15/14 A3002 RMK A01 T01490141  RH  095%=      5-min Rain = 0
KCL2 241131Z 19009KT 15/14 A3002 RMK A01 T01490141  RH  095%=      5-min Rain = 0
KCL2 241132Z 19010KT 15/14 A3002 RMK A01 T01490141  RH  095%=      5-min Rain = 0
KCL2 241133Z 19010KT 15/14 A3002 RMK A01 T01500142  RH  095%=      5-min Rain = 0
KCL2 241134Z 19010KT 15/14 A3002 RMK A01 T01490141  RH  095%=      5-min Rain = 0
KCL2 241135Z 19011KT 15/14 A3002 RMK A01 T01500141  RH  095%=      5-min Rain = 0
KCL2 241136Z 19010KT 15/14 A3002 RMK A01 T01500142  RH  095%=      5-min Rain = 0
KCL2 241137Z 19010KT 15/14 A3002 RMK A01 T01500142  RH  095%=      5-min Rain = 0
KCL2 241138Z 19009KT 15/14 A3002 RMK A01 T01500142  RH  095%=      5-min Rain = 0
KCL2 241139Z 19009KT 15/14 A3002 RMK A01 T01500141  RH  095%=      5-min Rain = 0
KCL2 241140Z 18009KT 15/14 A3002 RMK A01 T01500142  RH  095%=      5-min Rain = 0
KCL2 241141Z 19009KT 15/14 A3002 RMK A01 T01500142  RH  095%=      5-min Rain = 0
KCL2 241142Z 19010KT 15/14 A3002 RMK A01 T01500142  RH  095%=      5-min Rain = 0
KCL2 241143Z 18009KT 15/14 A3002 RMK A01 T01500142  RH  095%=      5-min Rain = 0
KCL2 241144Z 18008KT 15/14 A3002 RMK A01 T01500143  RH  095%=      5-min Rain = 0
KCL2 241145Z 19009KT 15/14 A3002 RMK A01 T01500142  RH  095%=      5-min Rain = 0
KCL2 241146Z 18009KT 15/14 A3002 RMK A01 T01500142  RH  095%=      5-min Rain = 0
KCL2 241147Z 19009KT 15/14 A3002 RMK A01 T01500142  RH  094%=      5-min Rain = 0
KCL2 241148Z 18010KT 15/14 A3002 RMK A01 T01500142  RH  095%=      5-min Rain = 0
KCL2 241149Z 18009KT 15/14 A3002 RMK A01 T01500142  RH  095%=      5-min Rain = 0
KCL2 241150Z 19009KT 15/14 A3002 RMK A01 T01500142  RH  095%=      5-min Rain = 0
KCL2 241151Z 18009KT 15/14 A3002 RMK A01 T01500142  RH  095%=      5-min Rain = 0
KCL2 241152Z 19009KT 15/14 A3002 RMK A01 T01490142  RH  095%=      5-min Rain = 0
KCL2 241153Z 18009KT 15/14 A3002 RMK A01 T01490142  RH  095%=      5-min Rain = 0
KCL2 241154Z 18009KT 15/14 A3002 RMK A01 T01490142  RH  095%=      5-min Rain = 0
KCL2 241155Z 18008KT 15/14 A3002 RMK A01 T01490142  RH  096%=      5-min Rain = 0
KCL2 241156Z 18007KT 15/14 A3002 RMK A01 T01490142  RH  095%=      5-min Rain = 0
KCL2 241157Z 18007KT 15/14 A3002 RMK A01 T01490141  RH  095%=      5-min Rain = 0
KCL2 241158Z 19007KT 15/14 A3002 RMK A01 T01490142  RH  096%=      5-min Rain = 0
KCL2 241159Z 18006KT 15/14 A3002 RMK A01 T01480141  RH  095%=      5-min Rain = 0
KCL2 241200Z 19007KT 15/14 A3002 RMK A01 T01470140  RH  095%=      5-min Rain = 0
KCL2 241201Z 18006KT 15/14 A3002 RMK A01 T01470140  RH  096%=      5-min Rain = 0
KCL2 241202Z 19007KT 15/14 A3002 RMK A01 T01460139  RH  096%=      5-min Rain = 0
KCL2 241203Z 19007KT 15/14 A3002 RMK A01 T01460140  RH  096%=      5-min Rain = 0
KCL2 241204Z 18008KT 15/14 A3002 RMK A01 T01460141  RH  096%=      5-min Rain = 0
KCL2 241205Z 18007KT 15/14 A3002 RMK A01 T01460140  RH  096%=      5-min Rain = 0
KCL2 241206Z 18008KT 15/14 A3003 RMK A01 T01450140  RH  096%=      5-min Rain = 0
KCL2 241207Z 18008KT 15/14 A3003 RMK A01 T01450140  RH  096%=      5-min Rain = 0
KCL2 241208Z 18007KT 15/14 A3003 RMK A01 T01450140  RH  097%=      5-min Rain = 0
KCL2 241209Z 18008KT 14/14 A3003 RMK A01 T01440139  RH  097%=      5-min Rain = 0
KCL2 241210Z 18007KT 14/14 A3003 RMK A01 T01440140  RH  097%=      5-min Rain = 0
KCL2 241211Z 17006KT 15/14 A3003 RMK A01 T01450140  RH  097%=      5-min Rain = 0
KCL2 241212Z 17007KT 15/14 A3003 RMK A01 T01450140  RH  097%=      5-min Rain = 0
KCL2 241213Z 17007KT 15/14 A3003 RMK A01 T01450139  RH  097%=      5-min Rain = 0
KCL2 241214Z 17007KT 14/14 A3003 RMK A01 T01440139  RH  097%=      5-min Rain = 0
KCL2 241215Z 17008KT 14/14 A3003 RMK A01 T01430138  RH  097%=      5-min Rain = 0
KCL2 241216Z 17008KT 14/14 A3003 RMK A01 T01430138  RH  097%=      5-min Rain = 0
KCL2 241217Z 17007KT 14/14 A3003 RMK A01 T01420137  RH  097%=      5-min Rain = 0
KCL2 241218Z 18007KT 14/14 A3003 RMK A01 T01420137  RH  097%=      5-min Rain = 0
KCL2 241219Z 17008KT 14/14 A3003 RMK A01 T01410137  RH  097%=      5-min Rain = 0
KCL2 241220Z 18007KT 14/14 A3003 RMK A01 T01410138  RH  098%=      5-min Rain = 0
KCL2 241221Z 18007KT 14/14 A3003 RMK A01 T01410137  RH  097%=      5-min Rain = 0
KCL2 241222Z 18007KT 14/14 A3003 RMK A01 T01410137  RH  098%=      5-min Rain = 0
KCL2 241223Z 18007KT 14/14 A3003 RMK A01 T01400137  RH  098%=      5-min Rain = 0
KCL2 241224Z 18008KT 14/14 A3003 RMK A01 T01400137  RH  098%=      5-min Rain = 0
KCL2 241225Z 18006KT 14/14 A3003 RMK A01 T01410137  RH  098%=      5-min Rain = 0
KCL2 241226Z 18007KT 14/14 A3003 RMK A01 T01400137  RH  098%=      5-min Rain = 0
KCL2 241227Z 18006KT 14/14 A3003 RMK A01 T01410138  RH  098%=      5-min Rain = 0
KCL2 241228Z 18006KT 14/14 A3003 RMK A01 T01400137  RH  098%=      5-min Rain = 0
KCL2 241229Z 18007KT 14/14 A3003 RMK A01 T01400137  RH  098%=      5-min Rain = 0
KCL2 241230Z 18007KT 14/14 A3003 RMK A01 T01400137  RH  098%=      5-min Rain = 0
KCL2 241231Z 18006KT 14/14 A3003 RMK A01 T01400137  RH  098%=      5-min Rain = 0
KCL2 241232Z 18006KT 14/14 A3003 RMK A01 T01400137  RH  098%=      5-min Rain = 0
KCL2 241233Z 18007KT 14/14 A3003 RMK A01 T01400137  RH  098%=      5-min Rain = 0
KCL2 241234Z 18006KT 14/14 A3003 RMK A01 T01400137  RH  098%=      5-min Rain = 0
KCL2 241235Z 18005KT 14/14 A3003 RMK A01 T01400137  RH  098%=      5-min Rain = 0
KCL2 241236Z 18006KT 14/14 A3003 RMK A01 T01400137  RH  098%=      5-min Rain = 0
KCL2 241237Z 18006KT 14/14 A3003 RMK A01 T01390137  RH  098%=      5-min Rain = 0
KCL2 241238Z 18006KT 14/14 A3003 RMK A01 T01390137  RH  098%=      5-min Rain = 0
KCL2 241239Z 18007KT 14/14 A3003 RMK A01 T01390137  RH  098%=      5-min Rain = 0
KCL2 241240Z 18007KT 14/14 A3003 RMK A01 T01400138  RH  099%=      5-min Rain = 0
KCL2 241241Z 18007KT 14/14 A3003 RMK A01 T01410139  RH  099%=      5-min Rain = 0
KCL2 241242Z 18006KT 14/14 A3003 RMK A01 T01410139  RH  098%=      5-min Rain = 0
KCL2 241243Z 18007KT 14/14 A3003 RMK A01 T01410139  RH  098%=      5-min Rain = 0
KCL2 241244Z 17006KT 14/14 A3003 RMK A01 T01420139  RH  098%=      5-min Rain = 0
KCL2 241245Z 18007KT 14/14 A3003 RMK A01 T01420139  RH  098%=      5-min Rain = 0
KCL2 241246Z 18007KT 14/14 A3003 RMK A01 T01420139  RH  098%=      5-min Rain = 0
KCL2 241247Z 18007KT 14/14 A3003 RMK A01 T01420139  RH  098%=      5-min Rain = 0
KCL2 241248Z 18007KT 14/14 A3003 RMK A01 T01420139  RH  098%=      5-min Rain = 0
KCL2 241249Z 18006KT 14/14 A3003 RMK A01 T01420139  RH  098%=      5-min Rain = 0
KCL2 241250Z 17006KT 14/14 A3003 RMK A01 T01420139  RH  098%=      5-min Rain = 0
KCL2 241251Z 17006KT 14/14 A3003 RMK A01 T01420139  RH  098%=      5-min Rain = 0
KCL2 241252Z 17007KT 14/14 A3003 RMK A01 T01420138  RH  097%=      5-min Rain = 0
KCL2 241253Z 17006KT 14/14 A3003 RMK A01 T01420139  RH  098%=      5-min Rain = 0
KCL2 241254Z 17007KT 14/14 A3003 RMK A01 T01430139  RH  098%=      5-min Rain = 0
KCL2 241255Z 17007KT 14/14 A3003 RMK A01 T01420139  RH  098%=      5-min Rain = 0
KCL2 241256Z 17007KT 14/14 A3003 RMK A01 T01430139  RH  098%=      5-min Rain = 0
KCL2 241257Z 17007KT 14/14 A3003 RMK A01 T01430140  RH  098%=      5-min Rain = 0
KCL2 241258Z 17007KT 14/14 A3003 RMK A01 T01440140  RH  098%=      5-min Rain = 0
KCL2 241259Z 17007KT 14/14 A3003 RMK A01 T01440140  RH  097%=      5-min Rain = 0
KCL2 241300Z 17007KT 14/14 A3003 RMK A01 T01440140  RH  097%=      5-min Rain = 0
KCL2 241301Z 17007KT 14/14 A3003 RMK A01 T01440139  RH  097%=      5-min Rain = 0
KCL2 241302Z 17007KT 14/14 A3003 RMK A01 T01430139  RH  097%=      5-min Rain = 0
KCL2 241303Z 17009KT 14/14 A3003 RMK A01 T01430139  RH  097%=      5-min Rain = 0
KCL2 241304Z 17008KT 14/14 A3003 RMK A01 T01430139  RH  097%=      5-min Rain = 0
KCL2 241305Z 17007KT 14/14 A3003 RMK A01 T01430139  RH  098%=      5-min Rain = 0
KCL2 241306Z 17007KT 14/14 A3003 RMK A01 T01430139  RH  097%=      5-min Rain = 0
KCL2 241307Z 17007KT 14/14 A3003 RMK A01 T01430139  RH  098%=      5-min Rain = 0
KCL2 241308Z 17008KT 14/14 A3003 RMK A01 T01430139  RH  098%=      5-min Rain = 0
KCL2 241309Z 17008KT 14/14 A3003 RMK A01 T01430140  RH  098%=      5-min Rain = 0
KCL2 241310Z 17008KT 14/14 A3003 RMK A01 T01430140  RH  098%=      5-min Rain = 0
KCL2 241311Z 17008KT 14/14 A3003 RMK A01 T01430140  RH  098%=      5-min Rain = 0
KCL2 241312Z 17009KT 14/14 A3003 RMK A01 T01440140  RH  098%=      5-min Rain = 0
KCL2 241313Z 17008KT 14/14 A3003 RMK A01 T01440140  RH  098%=      5-min Rain = 0
KCL2 241314Z 17007KT 14/14 A3003 RMK A01 T01440141  RH  098%=      5-min Rain = 0
KCL2 241315Z 17009KT 14/14 A3003 RMK A01 T01440141  RH  098%=      5-min Rain = 0
KCL2 241316Z 17007KT 15/14 A3003 RMK A01 T01450141  RH  098%=      5-min Rain = 0
KCL2 241317Z 17007KT 15/14 A3003 RMK A01 T01450141  RH  098%=      5-min Rain = 0
KCL2 241318Z 17007KT 15/14 A3003 RMK A01 T01450141  RH  097%=      5-min Rain = 0
KCL2 241319Z 17009KT 15/14 A3003 RMK A01 T01460142  RH  097%=      5-min Rain = 0
KCL2 241320Z 18009KT 15/14 A3003 RMK A01 T01460142  RH  097%=      5-min Rain = 0
KCL2 241321Z 18009KT 15/14 A3003 RMK A01 T01470143  RH  097%=      5-min Rain = 0
KCL2 241322Z 18008KT 15/14 A3003 RMK A01 T01480143  RH  097%=      5-min Rain = 0
KCL2 241323Z 18007KT 15/14 A3003 RMK A01 T01480143  RH  097%=      5-min Rain = 0
KCL2 241324Z 18009KT 15/14 A3003 RMK A01 T01490144  RH  097%=      5-min Rain = 0
KCL2 241325Z 18008KT 15/14 A3003 RMK A01 T01490143  RH  097%=      5-min Rain = 0
KCL2 241326Z 18009KT 15/14 A3003 RMK A01 T01490144  RH  096%=      5-min Rain = 0
KCL2 241327Z 18007KT 15/14 A3003 RMK A01 T01500144  RH  096%=      5-min Rain = 0
KCL2 241328Z 18007KT 15/14 A3003 RMK A01 T01500144  RH  096%=      5-min Rain = 0
KCL2 241329Z 18007KT 15/15 A3003 RMK A01 T01510145  RH  096%=      5-min Rain = 0
KCL2 241330Z 18008KT 15/15 A3003 RMK A01 T01510145  RH  096%=      5-min Rain = 0
KCL2 241331Z 18008KT 15/15 A3003 RMK A01 T01510145  RH  096%=      5-min Rain = 0
KCL2 241332Z 18009KT 15/15 A3003 RMK A01 T01520146  RH  096%=      5-min Rain = 0
KCL2 241333Z 17010KT 15/15 A3003 RMK A01 T01530146  RH  096%=      5-min Rain = 0
KCL2 241334Z 18008KT 15/15 A3003 RMK A01 T01530146  RH  095%=      5-min Rain = 0
KCL2 241335Z 18008KT 15/15 A3003 RMK A01 T01530146  RH  095%=      5-min Rain = 0
KCL2 241336Z 18009KT 15/15 A3003 RMK A01 T01540146  RH  095%=      5-min Rain = 0
KCL2 241337Z 18009KT 15/15 A3004 RMK A01 T01540147  RH  095%=      5-min Rain = 0
KCL2 241338Z 18009KT 16/15 A3004 RMK A01 T01550147  RH  095%=      5-min Rain = 0
KCL2 241339Z 18007KT 16/15 A3004 RMK A01 T01560147  RH  095%=      5-min Rain = 0
KCL2 241340Z 18009KT 16/15 A3004 RMK A01 T01560147  RH  094%=      5-min Rain = 0
KCL2 241341Z 18009KT 16/15 A3004 RMK A01 T01570147  RH  094%=      5-min Rain = 0
KCL2 241342Z 18009KT 16/15 A3004 RMK A01 T01570147  RH  094%=      5-min Rain = 0
KCL2 241343Z 18007KT 16/15 A3004 RMK A01 T01570147  RH  094%=      5-min Rain = 0
KCL2 241344Z 17006KT 16/15 A3004 RMK A01 T01580148  RH  094%=      5-min Rain = 0
KCL2 241345Z 17007KT 16/15 A3004 RMK A01 T01590149  RH  094%=      5-min Rain = 0
KCL2 241346Z 18009KT 16/15 A3004 RMK A01 T01590149  RH  094%=      5-min Rain = 0
KCL2 241347Z 17008KT 16/15 A3004 RMK A01 T01590148  RH  093%=      5-min Rain = 0
KCL2 241348Z 18009KT 16/15 A3004 RMK A01 T01590148  RH  093%=      5-min Rain = 0
KCL2 241349Z 18009KT 16/15 A3004 RMK A01 T01590148  RH  093%=      5-min Rain = 0
KCL2 241350Z 17008KT 16/15 A3004 RMK A01 T01600149  RH  093%=      5-min Rain = 0
KCL2 241351Z 18010KT 16/15 A3004 RMK A01 T01610150  RH  093%=      5-min Rain = 0
KCL2 241352Z 18009KT 16/15 A3004 RMK A01 T01630151  RH  093%=      5-min Rain = 0
KCL2 241353Z 18009KT 16/15 A3004 RMK A01 T01640151  RH  092%=      5-min Rain = 0
KCL2 241354Z 18008KT 17/15 A3004 RMK A01 T01650152  RH  092%=      5-min Rain = 0
KCL2 241355Z 18009KT 17/15 A3004 RMK A01 T01660153  RH  092%=      5-min Rain = 0
KCL2 241356Z 18010KT 17/15 A3004 RMK A01 T01670152  RH  091%=      5-min Rain = 0
KCL2 241357Z 18011KT 17/15 A3004 RMK A01 T01680152  RH  090%=      5-min Rain = 0
KCL2 241358Z 18010KT 17/15 A3004 RMK A01 T01680151  RH  090%=      5-min Rain = 0
KCL2 241359Z 19011KT 17/15 A3004 RMK A01 T01690153  RH  090%=      5-min Rain = 0
KCL2 241400Z 19011KT 17/15 A3004 RMK A01 T01700153  RH  090%=      5-min Rain = 0
KCL2 241401Z 19010KT 17/15 A3004 RMK A01 T01700152  RH  089%=      5-min Rain = 0
KCL2 241402Z 19010KT 17/15 A3004 RMK A01 T01710152  RH  089%=      5-min Rain = 0
KCL2 241403Z 18011KT 17/15 A3004 RMK A01 T01710153  RH  089%=      5-min Rain = 0
KCL2 241404Z 19011KT 17/15 A3004 RMK A01 T01720152  RH  088%=      5-min Rain = 0
KCL2 241405Z 19010KT 17/15 A3004 RMK A01 T01710152  RH  089%=      5-min Rain = 0
KCL2 241406Z 19011KT 17/15 A3004 RMK A01 T01720153  RH  089%=      5-min Rain = 0
KCL2 241407Z 19009KT 17/15 A3004 RMK A01 T01720153  RH  088%=      5-min Rain = 0
KCL2 241408Z 18009KT 17/15 A3005 RMK A01 T01720152  RH  088%=      5-min Rain = 0
KCL2 241409Z 19008KT 17/15 A3005 RMK A01 T01730154  RH  088%=      5-min Rain = 0
KCL2 241410Z 18009KT 17/15 A3005 RMK A01 T01740154  RH  088%=      5-min Rain = 0
KCL2 241411Z 19011KT 18/15 A3005 RMK A01 T01750153  RH  087%=      5-min Rain = 0
KCL2 241412Z 19010KT 18/15 A3005 RMK A01 T01750153  RH  087%=      5-min Rain = 0
KCL2 241413Z 20009KT 18/15 A3005 RMK A01 T01750154  RH  087%=      5-min Rain = 0
KCL2 241414Z 20010KT 18/15 A3005 RMK A01 T01760153  RH  087%=      5-min Rain = 0
KCL2 241415Z 20010KT 18/15 A3005 RMK A01 T01760152  RH  086%=      5-min Rain = 0
KCL2 241416Z 20008KT 18/15 A3005 RMK A01 T01760153  RH  086%=      5-min Rain = 0
KCL2 241417Z 19006KT 18/16 A3005 RMK A01 T01770155  RH  087%=      5-min Rain = 0
KCL2 241418Z 19007KT 18/16 A3005 RMK A01 T01780157  RH  087%=      5-min Rain = 0
KCL2 241419Z 20012KT 18/16 A3005 RMK A01 T01800155  RH  086%=      5-min Rain = 0
KCL2 241420Z 20009KT 18/15 A3005 RMK A01 T01800154  RH  085%=      5-min Rain = 0
KCL2 241421Z 19008KT 18/16 A3005 RMK A01 T01800156  RH  086%=      5-min Rain = 0
KCL2 241422Z 20011KT 18/16 A3005 RMK A01 T01810155  RH  085%=      5-min Rain = 0
KCL2 241423Z 20011KT 18/15 A3005 RMK A01 T01810154  RH  085%=      5-min Rain = 0
KCL2 241424Z 20010KT 18/15 A3005 RMK A01 T01810154  RH  085%=      5-min Rain = 0
KCL2 241425Z 20009G14KT 18/16 A3005 RMK A01 T01820157  RH  085%=      5-min Rain = 0
KCL2 241426Z 19011KT 18/16 A3005 RMK A01 T01830155  RH  084%=      5-min Rain = 0
KCL2 241427Z 19010KT 18/16 A3005 RMK A01 T01840157  RH  084%=      5-min Rain = 0
KCL2 241428Z 20013KT 19/16 A3005 RMK A01 T01850155  RH  083%=      5-min Rain = 0
KCL2 241429Z 19013KT 19/16 A3005 RMK A01 T01850155  RH  083%=      5-min Rain = 0
KCL2 241430Z 20013KT 19/15 A3005 RMK A01 T01860154  RH  082%=      5-min Rain = 0
KCL2 241431Z 20012KT 19/16 A3005 RMK A01 T01860155  RH  082%=      5-min Rain = 0
KCL2 241432Z 20011KT 19/16 A3005 RMK A01 T01860156  RH  083%=      5-min Rain = 0
KCL2 241433Z 20010KT 19/16 A3005 RMK A01 T01880155  RH  081%=      5-min Rain = 0
KCL2 241434Z 20011G18KT 19/16 A3005 RMK A01 T01890157  RH  082%=      5-min Rain = 0
KCL2 241435Z 20015KT 19/16 A3005 RMK A01 T01900155  RH  080%=      5-min Rain = 0
KCL2 241436Z 21013KT 19/15 A3005 RMK A01 T01900154  RH  080%=      5-min Rain = 0
KCL2 241437Z 20013KT 19/16 A3005 RMK A01 T01900155  RH  080%=      5-min Rain = 0
KCL2 241438Z 19016KT 19/16 A3005 RMK A01 T01910155  RH  080%=      5-min Rain = 0
KCL2 241439Z 21012KT 19/16 A3005 RMK A01 T01920155  RH  079%=      5-min Rain = 0
KCL2 241440Z 20010KT 19/16 A3005 RMK A01 T01930158  RH  080%=      5-min Rain = 0
KCL2 241441Z 20012G18KT 19/16 A3005 RMK A01 T01930157  RH  079%=      5-min Rain = 0
KCL2 241442Z 20012G17KT 19/16 A3005 RMK A01 T01940157  RH  079%=      5-min Rain = 0
KCL2 241443Z 21015KT 20/16 A3005 RMK A01 T01950156  RH  078%=      5-min Rain = 0
KCL2 241444Z 20014KT 20/16 A3005 RMK A01 T01950155  RH  077%=      5-min Rain = 0
KCL2 241445Z 20016KT 20/15 A3005 RMK A01 T01950153  RH  077%=      5-min Rain = 0
KCL2 241446Z 19012G17KT 19/16 A3005 RMK A01 T01940155  RH  078%=      5-min Rain = 0
KCL2 241447Z 21017KT 19/15 A3005 RMK A01 T01940154  RH  077%=      5-min Rain = 0
KCL2 241448Z 20016KT 19/15 A3005 RMK A01 T01940153  RH  077%=      5-min Rain = 0
KCL2 241449Z 21014KT 19/15 A3005 RMK A01 T01930153  RH  078%=      5-min Rain = 0
KCL2 241450Z 20014KT 20/16 A3005 RMK A01 T01950155  RH  078%=      5-min Rain = 0
KCL2 241451Z 21014KT 20/16 A3005 RMK A01 T01960155  RH  077%=      5-min Rain = 0
KCL2 241452Z 20016KT 20/16 A3005 RMK A01 T01960155  RH  077%=      5-min Rain = 0
KCL2 241453Z 21013KT 20/15 A3005 RMK A01 T01970154  RH  076%=      5-min Rain = 0
KCL2 241454Z 22014KT 20/16 A3005 RMK A01 T01980156  RH  076%=      5-min Rain = 0
KCL2 241455Z 21012KT 20/16 A3005 RMK A01 T01990158  RH  077%=      5-min Rain = 0
KCL2 241456Z 19014G19KT 20/16 A3005 RMK A01 T02010157  RH  076%=      5-min Rain = 0
KCL2 241457Z 21016KT 20/16 A3005 RMK A01 T02020156  RH  075%=      5-min Rain = 0
KCL2 241458Z 21014G19KT 20/15 A3005 RMK A01 T02010154  RH  074%=      5-min Rain = 0
KCL2 241459Z 21015KT 20/16 A3005 RMK A01 T02010156  RH  075%=      5-min Rain = 0
KCL2 241500Z 20013G18KT 20/16 A3005 RMK A01 T02010155  RH  075%=      5-min Rain = 0
KCL2 241501Z 21010KT 20/16 A3005 RMK A01 T02010158  RH  076%=      5-min Rain = 0
KCL2 241502Z 21013G18KT 20/16 A3005 RMK A01 T02030157  RH  075%=      5-min Rain = 0
KCL2 241503Z 21015G20KT 20/15 A3005 RMK A01 T02020154  RH  074%=      5-min Rain = 0
KCL2 241504Z 21016G21KT 20/15 A3005 RMK A01 T02010154  RH  075%=      5-min Rain = 0
KCL2 241505Z 22014KT 20/15 A3005 RMK A01 T01990153  RH  075%=      5-min Rain = 0
KCL2 241506Z 21014G19KT 20/15 A3005 RMK A01 T01980154  RH  075%=      5-min Rain = 0
KCL2 241507Z 22015KT 20/15 A3005 RMK A01 T01980153  RH  075%=      5-min Rain = 0
KCL2 241508Z 20015KT 20/15 A3005 RMK A01 T01960153  RH  076%=      5-min Rain = 0
KCL2 241509Z 21017KT 20/15 A3005 RMK A01 T01950151  RH  076%=      5-min Rain = 0
KCL2 241510Z 20017KT 19/15 A3005 RMK A01 T01940150  RH  076%=      5-min Rain = 0
KCL2 241511Z 21017KT 19/15 A3005 RMK A01 T01930150  RH  076%=      5-min Rain = 0
KCL2 241512Z 22015KT 19/15 A3006 RMK A01 T01920151  RH  077%=      5-min Rain = 0
KCL2 241513Z 22014KT 19/15 A3006 RMK A01 T01930152  RH  077%=      5-min Rain = 0
KCL2 241514Z 22015KT 19/15 A3006 RMK A01 T01940152  RH  076%=      5-min Rain = 0
KCL2 241515Z 22012KT 20/15 A3006 RMK A01 T01960154  RH  076%=      5-min Rain = 0
KCL2 241516Z 21011KT 20/16 A3006 RMK A01 T01980155  RH  076%=      5-min Rain = 0
KCL2 241517Z 21012KT 20/16 A3006 RMK A01 T02010156  RH  075%=      5-min Rain = 0
KCL2 241518Z 22013KT 20/16 A3006 RMK A01 T02020155  RH  074%=      5-min Rain = 0
KCL2 241519Z 22011KT 20/16 A3006 RMK A01 T02030157  RH  075%=      5-min Rain = 0
KCL2 241520Z 22011KT 21/16 A3006 RMK A01 T02060157  RH  073%=      5-min Rain = 0
KCL2 241521Z 23015G21KT 21/16 A3006 RMK A01 T02060156  RH  073%=      5-min Rain = 0
KCL2 241522Z 21014KT 21/16 A3006 RMK A01 T02060155  RH  073%=      5-min Rain = 0
KCL2 241523Z 22013KT 21/16 A3006 RMK A01 T02050155  RH  073%=      5-min Rain = 0
KCL2 241524Z 22015KT 21/16 A3006 RMK A01 T02060155  RH  072%=      5-min Rain = 0
KCL2 241525Z 23017KT 21/15 A3006 RMK A01 T02050154  RH  072%=      5-min Rain = 0
KCL2 241526Z 22014KT 20/16 A3006 RMK A01 T02040155  RH  073%=      5-min Rain = 0
KCL2 241527Z 23014G19KT 21/16 A3006 RMK A01 T02060156  RH  073%=      5-min Rain = 0
KCL2 241528Z 23015G21KT 21/16 A3006 RMK A01 T02070156  RH  072%=      5-min Rain = 0
KCL2 241529Z 21017KT 21/16 A3006 RMK A01 T02080155  RH  072%=      5-min Rain = 0
KCL2 241530Z 21013KT 21/16 A3006 RMK A01 T02080155  RH  072%=      5-min Rain = 0
KCL2 241531Z 21015KT 21/15 A3006 RMK A01 T02070154  RH  072%=      5-min Rain = 0
KCL2 241532Z 21016KT 21/15 A3006 RMK A01 T02080153  RH  071%=      5-min Rain = 0
KCL2 241533Z 21018KT 21/15 A3006 RMK A01 T02070154  RH  071%=      5-min Rain = 0
KCL2 241534Z 22014KT 21/15 A3007 RMK A01 T02070154  RH  072%=      5-min Rain = 0
KCL2 241535Z 21013KT 21/15 A3007 RMK A01 T02070154  RH  071%=      5-min Rain = 0
KCL2 241536Z 21017KT 21/15 A3007 RMK A01 T02070153  RH  071%=      5-min Rain = 0
KCL2 241537Z 22016KT 21/15 A3007 RMK A01 T02060153  RH  071%=      5-min Rain = 0
KCL2 241538Z 22014KT 21/16 A3007 RMK A01 T02070155  RH  072%=      5-min Rain = 0
KCL2 241539Z 22014KT 21/16 A3007 RMK A01 T02100157  RH  072%=      5-min Rain = 0
KCL2 241540Z 21012KT 21/16 A3006 RMK A01 T02120156  RH  070%=      5-min Rain = 0
KCL2 241541Z 21015KT 21/16 A3007 RMK A01 T02140156  RH  070%=      5-min Rain = 0
KCL2 241542Z 22014KT 21/16 A3006 RMK A01 T02140155  RH  069%=      5-min Rain = 0
KCL2 241543Z 22012KT 21/16 A3007 RMK A01 T02140155  RH  069%=      5-min Rain = 0
KCL2 241544Z 21012G19KT 21/16 A3007 RMK A01 T02140157  RH  070%=      5-min Rain = 0
KCL2 241545Z 21015KT 22/16 A3007 RMK A01 T02150155  RH  069%=      5-min Rain = 0
KCL2 241546Z 22014KT 22/15 A3007 RMK A01 T02150154  RH  068%=      5-min Rain = 0
KCL2 241547Z 21015KT 22/15 A3007 RMK A01 T02150153  RH  068%=      5-min Rain = 0
KCL2 241548Z 21015KT 21/16 A3007 RMK A01 T02140155  RH  069%=      5-min Rain = 0
KCL2 241549Z 21015KT 22/15 A3007 RMK A01 T02150152  RH  067%=      5-min Rain = 0
KCL2 241550Z 21015KT 21/15 A3007 RMK A01 T02140153  RH  068%=      5-min Rain = 0
KCL2 241551Z 21016KT 21/15 A3007 RMK A01 T02140153  RH  068%=      5-min Rain = 0
KCL2 241552Z 20015KT 22/15 A3007 RMK A01 T02150152  RH  067%=      5-min Rain = 0
KCL2 241553Z 20014KT 21/15 A3007 RMK A01 T02140152  RH  068%=      5-min Rain = 0
KCL2 241554Z 21013KT 21/15 A3007 RMK A01 T02140153  RH  068%=      5-min Rain = 0
KCL2 241555Z 22014KT 22/15 A3007 RMK A01 T02150154  RH  068%=      5-min Rain = 0
KCL2 241556Z 22015KT 22/15 A3007 RMK A01 T02160154  RH  068%=      5-min Rain = 0
KCL2 241557Z 22015KT 22/15 A3007 RMK A01 T02160154  RH  067%=      5-min Rain = 0
KCL2 241558Z 22017KT 22/15 A3006 RMK A01 T02160151  RH  066%=      5-min Rain = 0
KCL2 241559Z 22017KT 22/15 A3007 RMK A01 T02150150  RH  066%=      5-min Rain = 0
KCL2 241600Z 22015KT 21/15 A3007 RMK A01 T02140151  RH  067%=      5-min Rain = 0
KCL2 241601Z 23013KT 22/15 A3007 RMK A01 T02150152  RH  067%=      5-min Rain = 0
KCL2 241602Z 24014KT 22/15 A3007 RMK A01 T02170153  RH  067%=      5-min Rain = 0
KCL2 241603Z 24014KT 22/15 A3007 RMK A01 T02170152  RH  066%=      5-min Rain = 0
KCL2 241604Z 24014KT 22/15 A3006 RMK A01 T02170153  RH  067%=      5-min Rain = 0
KCL2 241605Z 22012KT 22/16 A3007 RMK A01 T02180155  RH  067%=      5-min Rain = 0
KCL2 241606Z 21014KT 22/15 A3007 RMK A01 T02200153  RH  066%=      5-min Rain = 0
KCL2 241607Z 22013KT 22/15 A3007 RMK A01 T02200153  RH  066%=      5-min Rain = 0
KCL2 241608Z 23011KT 22/16 A3007 RMK A01 T02200155  RH  067%=      5-min Rain = 0
KCL2 241609Z 23015KT 22/15 A3006 RMK A01 T02220153  RH  065%=      5-min Rain = 0
KCL2 241610Z 22014KT 22/15 A3007 RMK A01 T02210153  RH  065%=      5-min Rain = 0
KCL2 241611Z 23011KT 22/15 A3007 RMK A01 T02200154  RH  066%=      5-min Rain = 0
KCL2 241612Z 24013KT 22/15 A3006 RMK A01 T02210153  RH  065%=      5-min Rain = 0
KCL2 241613Z 23012KT 22/15 A3006 RMK A01 T02200153  RH  065%=      5-min Rain = 0
KCL2 241614Z 23012KT 22/15 A3006 RMK A01 T02210154  RH  066%=      5-min Rain = 0
KCL2 241615Z 23013KT 22/15 A3006 RMK A01 T02220154  RH  065%=      5-min Rain = 0
KCL2 241616Z 24013KT 22/15 A3007 RMK A01 T02240151  RH  063%=      5-min Rain = 0
KCL2 241617Z 23016KT 22/15 A3006 RMK A01 T02240151  RH  063%=      5-min Rain = 0
KCL2 241618Z 22015KT 22/15 A3007 RMK A01 T02230151  RH  064%=      5-min Rain = 0
KCL2 241619Z 23011KT 22/15 A3007 RMK A01 T02210151  RH  064%=      5-min Rain = 0
KCL2 241620Z 22012KT 22/15 A3007 RMK A01 T02210150  RH  064%=      5-min Rain = 0
KCL2 241621Z 22013KT 22/15 A3007 RMK A01 T02220152  RH  065%=      5-min Rain = 0
KCL2 241622Z 23011G16KT 22/15 A3006 RMK A01 T02230152  RH  064%=      5-min Rain = 0
KCL2 241623Z 23010KT 22/15 A3006 RMK A01 T02240153  RH  064%=      5-min Rain = 0
KCL2 241624Z 23009KT 23/16 A3007 RMK A01 T02260156  RH  065%=      5-min Rain = 0
KCL2 241625Z 22013KT 23/16 A3006 RMK A01 T02310157  RH  063%=      5-min Rain = 0
KCL2 241626Z 21012KT 23/15 A3006 RMK A01 T02310152  RH  061%=      5-min Rain = 0
KCL2 241627Z 21010KT 23/15 A3006 RMK A01 T02310154  RH  062%=      5-min Rain = 0
KCL2 241628Z 23012KT 23/15 A3006 RMK A01 T02320153  RH  061%=      5-min Rain = 0
KCL2 241629Z 23014KT 23/15 A3006 RMK A01 T02300150  RH  061%=      5-min Rain = 0
KCL2 241630Z 24011KT 23/15 A3006 RMK A01 T02270153  RH  063%=      5-min Rain = 0
KCL2 241631Z 24012KT 23/15 A3006 RMK A01 T02270152  RH  063%=      5-min Rain = 0
KCL2 241632Z 23013KT 23/15 A3006 RMK A01 T02270153  RH  063%=      5-min Rain = 0
KCL2 241633Z 23013G18KT 23/16 A3006 RMK A01 T02290155  RH  063%=      5-min Rain = 0
KCL2 241634Z 23015KT 23/15 A3006 RMK A01 T02320149  RH  060%=      5-min Rain = 0
KCL2 241635Z 24015KT 23/15 A3006 RMK A01 T02300151  RH  061%=      5-min Rain = 0
KCL2 241636Z 24013KT 23/15 A3006 RMK A01 T02280152  RH  062%=      5-min Rain = 0
KCL2 241637Z 23015KT 23/15 A3006 RMK A01 T02270153  RH  063%=      5-min Rain = 0
KCL2 241638Z 22016KT 23/15 A3006 RMK A01 T02270150  RH  062%=      5-min Rain = 0
KCL2 241639Z 22016KT 23/15 A3006 RMK A01 T02260150  RH  062%=      5-min Rain = 0
KCL2 241640Z 22016KT 23/15 A3006 RMK A01 T02260149  RH  062%=      5-min Rain = 0
KCL2 241641Z 23013KT 23/15 A3006 RMK A01 T02260148  RH  061%=      5-min Rain = 0
KCL2 241642Z 23012KT 23/15 A3007 RMK A01 T02280151  RH  062%=      5-min Rain = 0
KCL2 241643Z 22012KT 23/15 A3007 RMK A01 T02290153  RH  062%=      5-min Rain = 0
KCL2 241644Z 23013KT 23/15 A3007 RMK A01 T02330152  RH  060%=      5-min Rain = 0
KCL2 241645Z 23014KT 23/15 A3006 RMK A01 T02330154  RH  061%=      5-min Rain = 0
KCL2 241646Z 23015KT 23/15 A3007 RMK A01 T02330153  RH  061%=      5-min Rain = 0
KCL2 241647Z 23015KT 23/15 A3006 RMK A01 T02310152  RH  061%=      5-min Rain = 0
KCL2 241648Z 23013KT 23/15 A3006 RMK A01 T02290152  RH  062%=      5-min Rain = 0
KCL2 241649Z 22014KT 23/15 A3006 RMK A01 T02290151  RH  061%=      5-min Rain = 0
KCL2 241650Z 21013KT 23/15 A3006 RMK A01 T02300149  RH  060%=      5-min Rain = 0
KCL2 241651Z 22011KT 23/15 A3006 RMK A01 T02320152  RH  061%=      5-min Rain = 0
KCL2 241652Z 22014KT 24/15 A3006 RMK A01 T02360154  RH  060%=      5-min Rain = 0
KCL2 241653Z 22013KT 24/15 A3006 RMK A01 T02370153  RH  059%=      5-min Rain = 0
KCL2 241654Z 23012KT 24/16 A3006 RMK A01 T02360155  RH  060%=      5-min Rain = 0
KCL2 241655Z 23011KT 24/16 A3006 RMK A01 T02360155  RH  060%=      5-min Rain = 0
KCL2 241656Z 24013KT 24/16 A3006 RMK A01 T02370155  RH  060%=      5-min Rain = 0
KCL2 241657Z 24014KT 24/15 A3006 RMK A01 T02370152  RH  059%=      5-min Rain = 0
KCL2 241658Z 23014KT 24/15 A3006 RMK A01 T02360152  RH  059%=      5-min Rain = 0
KCL2 241659Z 22013KT 24/15 A3006 RMK A01 T02350150  RH  059%=      5-min Rain = 0
KCL2 241700Z 22011G17KT 24/15 A3006 RMK A01 T02350153  RH  060%=      5-min Rain = 0
KCL2 241701Z 23016KT 24/15 A3006 RMK A01 T02370152  RH  059%=      5-min Rain = 0
KCL2 241702Z 23014KT 24/15 A3006 RMK A01 T02350153  RH  060%=      5-min Rain = 0
KCL2 241703Z 24012KT 23/15 A3006 RMK A01 T02340151  RH  060%=      5-min Rain = 0
KCL2 241704Z 24014KT 23/15 A3006 RMK A01 T02340152  RH  060%=      5-min Rain = 0
KCL2 241705Z 23011KT 23/15 A3006 RMK A01 T02330152  RH  060%=      5-min Rain = 0
KCL2 241706Z 23009KT 24/16 A3006 RMK A01 T02350157  RH  062%=      5-min Rain = 0
KCL2 241707Z 23012KT 24/16 A3006 RMK A01 T02400157  RH  060%=      5-min Rain = 0
KCL2 241708Z 23011KT 24/15 A3006 RMK A01 T02400154  RH  059%=      5-min Rain = 0
KCL2 241709Z 23010KT 24/16 A3006 RMK A01 T02380157  RH  060%=      5-min Rain = 0
KCL2 241710Z 23016KT 24/16 A3006 RMK A01 T02430158  RH  059%=      5-min Rain = 0
KCL2 241711Z 23013KT 24/15 A3006 RMK A01 T02400151  RH  057%=      5-min Rain = 0
KCL2 241712Z 23012KT 24/15 A3006 RMK A01 T02350151  RH  059%=      5-min Rain = 0
KCL2 241713Z 21011KT 23/15 A3006 RMK A01 T02340145  RH  057%=      5-min Rain = 0
KCL2 241714Z 22011KT 23/15 A3006 RMK A01 T02320145  RH  058%=      5-min Rain = 0
KCL2 241715Z 22012KT 24/14 A3006 RMK A01 T02350143  RH  056%=      5-min Rain = 0
KCL2 241716Z 24013G18KT 24/15 A3006 RMK A01 T02350147  RH  058%=      5-min Rain = 0
KCL2 241717Z 23015KT 24/15 A3006 RMK A01 T02360147  RH  058%=      5-min Rain = 0
KCL2 241718Z 23015KT 24/15 A3006 RMK A01 T02370146  RH  057%=      5-min Rain = 0
KCL2 241719Z 23013KT 24/15 A3006 RMK A01 T02360146  RH  057%=      5-min Rain = 0
KCL2 241720Z 24012KT 23/15 A3006 RMK A01 T02340148  RH  058%=      5-min Rain = 0
KCL2 241721Z 24013KT 23/15 A3006 RMK A01 T02340153  RH  060%=      5-min Rain = 0
KCL2 241722Z 24011KT 24/15 A3006 RMK A01 T02370150  RH  058%=      5-min Rain = 0
KCL2 241723Z 24013G18KT 24/15 A3006 RMK A01 T02360150  RH  058%=      5-min Rain = 0
KCL2 241724Z 23012KT 24/14 A3006 RMK A01 T02400144  RH  055%=      5-min Rain = 0
KCL2 241725Z 25012KT 24/15 A3006 RMK A01 T02430146  RH  055%=      5-min Rain = 0
KCL2 241726Z 24013KT 24/15 A3006 RMK A01 T02430145  RH  054%=      5-min Rain = 0
KCL2 241727Z 23010KT 24/15 A3006 RMK A01 T02400145  RH  055%=      5-min Rain = 0
KCL2 241728Z 23007KT 24/14 A3006 RMK A01 T02370144  RH  056%=      5-min Rain = 0
KCL2 241729Z 24008KT 24/15 A3006 RMK A01 T02360146  RH  057%=      5-min Rain = 0
KCL2 241730Z 23010KT 24/15 A3006 RMK A01 T02400148  RH  057%=      5-min Rain = 0
KCL2 241731Z 25010KT 24/15 A3006 RMK A01 T02430146  RH  054%=      5-min Rain = 0
KCL2 241732Z 22011KT 25/15 A3006 RMK A01 T02450149  RH  055%=      5-min Rain = 0
KCL2 241733Z 22010KT 25/15 A3006 RMK A01 T02460149  RH  055%=      5-min Rain = 0
KCL2 241734Z 20009KT 24/15 A3006 RMK A01 T02430146  RH  055%=      5-min Rain = 0
KCL2 241735Z 22011KT 24/15 A3006 RMK A01 T02410147  RH  056%=      5-min Rain = 0
KCL2 241736Z 23012KT 24/15 A3006 RMK A01 T02420148  RH  056%=      5-min Rain = 0
KCL2 241737Z 24014KT 24/15 A3006 RMK A01 T02430145  RH  054%=      5-min Rain = 0
KCL2 241738Z 22013KT 24/15 A3006 RMK A01 T02410145  RH  055%=      5-min Rain = 0
KCL2 241739Z 24012KT 24/14 A3006 RMK A01 T02400144  RH  055%=      5-min Rain = 0
KCL2 241740Z 23012KT 24/14 A3006 RMK A01 T02400144  RH  055%=      5-min Rain = 0
KCL2 241741Z 24008KT 24/15 A3006 RMK A01 T02400146  RH  055%=      5-min Rain = 0
KCL2 241742Z 22007KT 24/14 A3006 RMK A01 T02410144  RH  055%=      5-min Rain = 0
KCL2 241743Z 22009KT 24/15 A3006 RMK A01 T02410148  RH  056%=      5-min Rain = 0
KCL2 241744Z 23010KT 24/15 A3006 RMK A01 T02430148  RH  056%=      5-min Rain = 0
KCL2 241745Z 22009KT 24/15 A3006 RMK A01 T02420150  RH  056%=      5-min Rain = 0
KCL2 241746Z 22007KT 24/15 A3006 RMK A01 T02410146  RH  055%=      5-min Rain = 0
KCL2 241747Z 22010KT 24/15 A3006 RMK A01 T02410149  RH  056%=      5-min Rain = 0
KCL2 241748Z 22009KT 24/15 A3006 RMK A01 T02420147  RH  055%=      5-min Rain = 0
KCL2 241749Z 23009KT 24/15 A3006 RMK A01 T02410148  RH  056%=      5-min Rain = 0
KCL2 241750Z 26009KT 24/15 A3006 RMK A01 T02410150  RH  057%=      5-min Rain = 0
KCL2 241751Z 26008KT 24/15 A3006 RMK A01 T02440146  RH  054%=      5-min Rain = 0
KCL2 241752Z 24011KT 25/15 A3006 RMK A01 T02460150  RH  055%=      5-min Rain = 0
KCL2 241753Z 22010KT 25/15 A3006 RMK A01 T02460150  RH  055%=      5-min Rain = 0
KCL2 241754Z 23010KT 25/15 A3005 RMK A01 T02450146  RH  054%=      5-min Rain = 0
KCL2 241755Z 23011KT 24/15 A3005 RMK A01 T02430146  RH  054%=      5-min Rain = 0
KCL2 241756Z 24013KT 25/15 A3005 RMK A01 T02460149  RH  055%=      5-min Rain = 0
KCL2 241757Z 23013KT 25/15 A3005 RMK A01 T02480147  RH  053%=      5-min Rain = 0
KCL2 241758Z 24011KT 25/14 A3006 RMK A01 T02450143  RH  053%=      5-min Rain = 0
KCL2 241759Z 23010KT 24/14 A3005 RMK A01 T02410143  RH  054%=      5-min Rain = 0
KCL2 241800Z 24007KT 24/14 A3006 RMK A01 T02400143  RH  055%=      5-min Rain = 0
KCL2 241801Z 24007KT 24/14 A3005 RMK A01 T02400144  RH  055%=      5-min Rain = 0
KCL2 241802Z 21007KT 24/15 A3005 RMK A01 T02410147  RH  056%=      5-min Rain = 0
KCL2 241803Z 24007KT 25/15 A3005 RMK A01 T02470153  RH  056%=      5-min Rain = 0
KCL2 241804Z 23007KT 25/15 A3005 RMK A01 T02520151  RH  053%=      5-min Rain = 0
KCL2 241805Z 22007KT 25/15 A3005 RMK A01 T02500151  RH  054%=      5-min Rain = 0
KCL2 241806Z 24008KT 25/15 A3005 RMK A01 T02500150  RH  054%=      5-min Rain = 0
KCL2 241807Z 23012KT 25/15 A3005 RMK A01 T02500154  RH  055%=      5-min Rain = 0
KCL2 241808Z 22012KT 25/15 A3005 RMK A01 T02500150  RH  054%=      5-min Rain = 0
KCL2 241809Z 23011KT 25/15 A3005 RMK A01 T02490151  RH  055%=      5-min Rain = 0
KCL2 241810Z 25010KT 25/15 A3005 RMK A01 T02490151  RH  055%=      5-min Rain = 0
KCL2 241811Z 25012KT 25/15 A3005 RMK A01 T02500152  RH  055%=      5-min Rain = 0
KCL2 241812Z 24007KT 25/15 A3005 RMK A01 T02500151  RH  054%=      5-min Rain = 0
KCL2 241813Z 25011KT 25/15 A3005 RMK A01 T02490151  RH  054%=      5-min Rain = 0
KCL2 241814Z 25013KT 25/15 A3005 RMK A01 T02510145  RH  052%=      5-min Rain = 0
KCL2 241815Z 25013KT 25/14 A3005 RMK A01 T02510142  RH  051%=      5-min Rain = 0
KCL2 241816Z 24009KT 25/14 A3005 RMK A01 T02490138  RH  050%=      5-min Rain = 0
KCL2 241817Z 24012KT 25/14 A3005 RMK A01 T02490139  RH  050%=      5-min Rain = 0
KCL2 241818Z 24012KT 25/14 A3005 RMK A01 T02500137  RH  049%=      5-min Rain = 0
KCL2 241819Z 24010KT 25/14 A3005 RMK A01 T02480139  RH  051%=      5-min Rain = 0
KCL2 241820Z 24007KT 25/14 A3005 RMK A01 T02490141  RH  051%=      5-min Rain = 0
KCL2 241821Z 25009KT 25/14 A3005 RMK A01 T02500141  RH  051%=      5-min Rain = 0
KCL2 241822Z 24007KT 25/14 A3005 RMK A01 T02490144  RH  052%=      5-min Rain = 0
KCL2 241823Z 26010KT 25/14 A3005 RMK A01 T02530144  RH  051%=      5-min Rain = 0
KCL2 241824Z 24012KT 26/14 A3005 RMK A01 T02560139  RH  048%=      5-min Rain = 0
KCL2 241825Z 24013KT 26/14 A3005 RMK A01 T02550140  RH  049%=      5-min Rain = 0
KCL2 241826Z 23011KT 25/14 A3005 RMK A01 T02530142  RH  050%=      5-min Rain = 0
KCL2 241827Z 22010KT 25/14 A3005 RMK A01 T02520142  RH  050%=      5-min Rain = 0
KCL2 241828Z 21011KT 25/14 A3005 RMK A01 T02540143  RH  050%=      5-min Rain = 0
KCL2 241829Z 23010KT 26/15 A3004 RMK A01 T02560145  RH  050%=      5-min Rain = 0
KCL2 241830Z 23008G13KT 26/14 A3004 RMK A01 T02580142  RH  049%=      5-min Rain = 0
KCL2 241831Z 23014KT 26/14 A3004 RMK A01 T02570141  RH  048%=      5-min Rain = 0
KCL2 241832Z 24012KT 26/14 A3004 RMK A01 T02550139  RH  049%=      5-min Rain = 0
KCL2 241833Z 25011KT 26/14 A3004 RMK A01 T02570142  RH  049%=      5-min Rain = 0
KCL2 241834Z 22010KT 26/14 A3004 RMK A01 T02610140  RH  047%=      5-min Rain = 0
KCL2 241835Z 21012KT 26/14 A3004 RMK A01 T02620137  RH  046%=      5-min Rain = 0
KCL2 241836Z 21013KT 26/14 A3004 RMK A01 T02580137  RH  047%=      5-min Rain = 0
KCL2 241837Z 22011KT 26/14 A3004 RMK A01 T02570138  RH  048%=      5-min Rain = 0
KCL2 241838Z 23010KT 26/14 A3004 RMK A01 T02580136  RH  047%=      5-min Rain = 0
KCL2 241839Z 23010KT 26/14 A3004 RMK A01 T02550135  RH  047%=      5-min Rain = 0
KCL2 241840Z 24012G17KT 26/14 A3004 RMK A01 T02560136  RH  047%=      5-min Rain = 0
KCL2 241841Z 24012G17KT 26/13 A3004 RMK A01 T02580128  RH  044%=      5-min Rain = 0
KCL2 241842Z 25011KT 26/13 A3004 RMK A01 T02580132  RH  046%=      5-min Rain = 0
KCL2 241843Z 24013KT 26/13 A3004 RMK A01 T02620134  RH  045%=      5-min Rain = 0
KCL2 241844Z 25010KT 26/13 A3004 RMK A01 T02600132  RH  045%=      5-min Rain = 0
KCL2 241845Z 24011KT 26/14 A3004 RMK A01 T02580138  RH  047%=      5-min Rain = 0
KCL2 241846Z 24009KT 26/14 A3004 RMK A01 T02580139  RH  048%=      5-min Rain = 0
KCL2 241847Z 23007KT 26/14 A3004 RMK A01 T02590138  RH  047%=      5-min Rain = 0
KCL2 241848Z 25008KT 26/14 A3004 RMK A01 T02620136  RH  046%=      5-min Rain = 0
KCL2 241849Z 24009KT 26/14 A3004 RMK A01 T02610142  RH  048%=      5-min Rain = 0
KCL2 241850Z 21009KT 26/14 A3004 RMK A01 T02600142  RH  048%=      5-min Rain = 0
KCL2 241851Z 23011KT 26/14 A3004 RMK A01 T02620139  RH  047%=      5-min Rain = 0
KCL2 241852Z 25012KT 26/14 A3004 RMK A01 T02610136  RH  046%=      5-min Rain = 0
KCL2 241853Z 25010KT 26/13 A3004 RMK A01 T02560132  RH  046%=      5-min Rain = 0
KCL2 241854Z 26008KT 25/13 A3004 RMK A01 T02540132  RH  046%=      5-min Rain = 0
KCL2 241855Z 26006KT 25/13 A3004 RMK A01 T02540131  RH  046%=      5-min Rain = 0
KCL2 241856Z 25010G15KT 25/13 A3004 RMK A01 T02540130  RH  046%=      5-min Rain = 0
KCL2 241857Z 23014KT 25/13 A3003 RMK A01 T02540132  RH  046%=      5-min Rain = 0
KCL2 241858Z 25011KT 26/13 A3003 RMK A01 T02550133  RH  047%=      5-min Rain = 0
KCL2 241859Z 25015KT 25/13 A3003 RMK A01 T02540134  RH  047%=      5-min Rain = 0
KCL2 241900Z 25013KT 26/14 A3003 RMK A01 T02560136  RH  047%=      5-min Rain = 0
KCL2 241901Z 25009KT 26/14 A3003 RMK A01 T02590135  RH  046%=      5-min Rain = 0
KCL2 241902Z 25007KT 26/13 A3003 RMK A01 T02600134  RH  046%=      5-min Rain = 0
KCL2 241903Z 23011KT 26/14 A3003 RMK A01 T02610137  RH  046%=      5-min Rain = 0
KCL2 241904Z 22012G19KT 27/14 A3003 RMK A01 T02650142  RH  047%=      5-min Rain = 0
KCL2 241905Z 22012KT 27/14 A3003 RMK A01 T02680135  RH  044%=      5-min Rain = 0
KCL2 241906Z 21011KT 27/14 A3003 RMK A01 T02660135  RH  044%=      5-min Rain = 0
KCL2 241907Z 20008KT 26/14 A3003 RMK A01 T02640136  RH  045%=      5-min Rain = 0
KCL2 241908Z 22010G15KT 27/14 A3003 RMK A01 T02660139  RH  046%=      5-min Rain = 0
KCL2 241909Z 23012KT 27/14 A3003 RMK A01 T02680141  RH  045%=      5-min Rain = 0
KCL2 241910Z 24014KT 27/14 A3003 RMK A01 T02670141  RH  046%=      5-min Rain = 0
KCL2 241911Z 23013KT 27/14 A3003 RMK A01 T02670137  RH  045%=      5-min Rain = 0
KCL2 241912Z 23012KT 27/14 A3003 RMK A01 T02650135  RH  045%=      5-min Rain = 0
KCL2 241913Z 22012KT 27/14 A3003 RMK A01 T02650136  RH  045%=      5-min Rain = 0
KCL2 241914Z 22014KT 27/13 A3003 RMK A01 T02670132  RH  043%=      5-min Rain = 0
KCL2 241915Z 21012KT 27/13 A3003 RMK A01 T02660127  RH  042%=      5-min Rain = 0
KCL2 241916Z 21010KT 26/13 A3003 RMK A01 T02640131  RH  044%=      5-min Rain = 0
KCL2 241917Z 24010KT 27/13 A3003 RMK A01 T02680133  RH  043%=      5-min Rain = 0
KCL2 241918Z 25010KT 27/12 A3002 RMK A01 T02660124  RH  041%=      5-min Rain = 0
KCL2 241919Z 23011KT 26/13 A3003 RMK A01 T02610131  RH  044%=      5-min Rain = 0
KCL2 241920Z 24010KT 26/14 A3003 RMK A01 T02600135  RH  046%=      5-min Rain = 0
KCL2 241921Z 24009KT 26/14 A3003 RMK A01 T02630135  RH  045%=      5-min Rain = 0
KCL2 241922Z 23010G15KT 26/14 A3002 RMK A01 T02640136  RH  045%=      5-min Rain = 0
KCL2 241923Z 22014KT 26/14 A3002 RMK A01 T02640137  RH  045%=      5-min Rain = 0
KCL2 241924Z 21012KT 27/13 A3002 RMK A01 T02650133  RH  044%=      5-min Rain = 0
KCL2 241925Z 21011KT 26/13 A3002 RMK A01 T02640132  RH  044%=      5-min Rain = 0
KCL2 241926Z 21009KT 26/13 A3002 RMK A01 T02630129  RH  043%=      5-min Rain = 0
KCL2 241927Z 21010KT 27/13 A3002 RMK A01 T02650128  RH  043%=      5-min Rain = 0
KCL2 241928Z 21011KT 27/13 A3002 RMK A01 T02660126  RH  042%=      5-min Rain = 0
KCL2 241929Z 24009KT 27/13 A3002 RMK A01 T02650126  RH  042%=      5-min Rain = 0
KCL2 241930Z 25011KT 27/12 A3002 RMK A01 T02660120  RH  040%=      5-min Rain = 0
KCL2 241931Z 24011KT 27/12 A3002 RMK A01 T02660116  RH  039%=      5-min Rain = 0
KCL2 241932Z 24009KT 26/11 A3002 RMK A01 T02610112  RH  039%=      5-min Rain = 0
KCL2 241933Z 24008KT 26/12 A3002 RMK A01 T02570117  RH  042%=      5-min Rain = 0
KCL2 241934Z 23008KT 26/12 A3002 RMK A01 T02560121  RH  043%=      5-min Rain = 0
KCL2 241935Z 21008KT 26/12 A3002 RMK A01 T02560119  RH  042%=      5-min Rain = 0
KCL2 241936Z 23005KT 26/13 A3002 RMK A01 T02580127  RH  044%=      5-min Rain = 0
KCL2 241937Z 25011KT 26/13 A3002 RMK A01 T02640127  RH  043%=      5-min Rain = 0
KCL2 241938Z 24013KT 27/12 A3002 RMK A01 T02670118  RH  039%=      5-min Rain = 0
KCL2 241939Z 25013KT 27/12 A3002 RMK A01 T02680123  RH  040%=      5-min Rain = 0
KCL2 241940Z 25012KT 27/13 A3002 RMK A01 T02680127  RH  042%=      5-min Rain = 0
KCL2 241941Z 24011KT 27/12 A3002 RMK A01 T02670122  RH  040%=      5-min Rain = 0
KCL2 241942Z 23013KT 27/12 A3002 RMK A01 T02670121  RH  040%=      5-min Rain = 0
KCL2 241943Z 25011KT 27/11 A3002 RMK A01 T02680114  RH  038%=      5-min Rain = 0
KCL2 241944Z 25008KT 27/12 A3002 RMK A01 T02670115  RH  039%=      5-min Rain = 0
KCL2 241945Z 24010KT 27/12 A3002 RMK A01 T02670121  RH  040%=      5-min Rain = 0
KCL2 241946Z 23006KT 27/12 A3002 RMK A01 T02650118  RH  040%=      5-min Rain = 0
KCL2 241947Z 24007KT 26/12 A3002 RMK A01 T02630118  RH  041%=      5-min Rain = 0
KCL2 241948Z 24013KT 26/12 A3002 RMK A01 T02630118  RH  040%=      5-min Rain = 0
KCL2 241949Z 24012KT 26/12 A3002 RMK A01 T02640120  RH  041%=      5-min Rain = 0
KCL2 241950Z 25010KT 27/13 A3002 RMK A01 T02660125  RH  042%=      5-min Rain = 0
KCL2 241951Z 25009KT 27/13 A3002 RMK A01 T02680127  RH  042%=      5-min Rain = 0
KCL2 241952Z 23008KT 27/13 A3002 RMK A01 T02700125  RH  041%=      5-min Rain = 0
KCL2 241953Z 21006KT 27/12 A3002 RMK A01 T02710119  RH  039%=      5-min Rain = 0
KCL2 241954Z 24007G13KT 27/12 A3002 RMK A01 T02690118  RH  039%=      5-min Rain = 0
KCL2 241955Z 27010KT 27/13 A3001 RMK A01 T02690125  RH  041%=      5-min Rain = 0
KCL2 241956Z 25009KT 27/12 A3001 RMK A01 T02680124  RH  041%=      5-min Rain = 0
KCL2 241957Z 26009KT 27/13 A3001 RMK A01 T02670127  RH  042%=      5-min Rain = 0
KCL2 241958Z 26013KT 27/12 A3001 RMK A01 T02700122  RH  040%=      5-min Rain = 0
KCL2 241959Z 24012KT 27/11 A3001 RMK A01 T02700105  RH  036%=      5-min Rain = 0
KCL2 242000Z 25014KT 27/11 A3001 RMK A01 T02690110  RH  037%=      5-min Rain = 0
KCL2 242001Z 24012KT 27/11 A3001 RMK A01 T02690106  RH  036%=      5-min Rain = 0
KCL2 242002Z 24013KT 27/11 A3001 RMK A01 T02690105  RH  036%=      5-min Rain = 0
KCL2 242003Z 23008KT 27/10 A3001 RMK A01 T02660103  RH  036%=      5-min Rain = 0
KCL2 242004Z 23006KT 26/11 A3001 RMK A01 T02640107  RH  037%=      5-min Rain = 0
KCL2 242005Z 25005KT 27/11 A3001 RMK A01 T02680111  RH  038%=      5-min Rain = 0
KCL2 242006Z 26006KT 27/11 A3001 RMK A01 T02720107  RH  036%=      5-min Rain = 0
KCL2 242007Z 26006KT 27/10 A3001 RMK A01 T02730104  RH  035%=      5-min Rain = 0
KCL2 242008Z 27007KT 27/10 A3001 RMK A01 T02730102  RH  034%=      5-min Rain = 0
KCL2 242009Z 26009KT 27/11 A3001 RMK A01 T02730106  RH  035%=      5-min Rain = 0
KCL2 242010Z 25013KT 28/11 A3001 RMK A01 T02750111  RH  036%=      5-min Rain = 0
KCL2 242011Z 25010KT 27/11 A3001 RMK A01 T02720111  RH  036%=      5-min Rain = 0
KCL2 242012Z 24011KT 27/11 A3001 RMK A01 T02690111  RH  037%=      5-min Rain = 0
KCL2 242013Z 23007KT 27/11 A3001 RMK A01 T02680107  RH  036%=      5-min Rain = 0
KCL2 242014Z 23008KT 27/11 A3001 RMK A01 T02690109  RH  037%=      5-min Rain = 0
KCL2 242015Z 23011KT 27/11 A3001 RMK A01 T02710109  RH  036%=      5-min Rain = 0
KCL2 242016Z 26010KT 27/11 A3001 RMK A01 T02710111  RH  037%=      5-min Rain = 0
KCL2 242017Z 26011KT 27/11 A3001 RMK A01 T02720106  RH  035%=      5-min Rain = 0
KCL2 242018Z 26010KT 27/10 A3001 RMK A01 T02710102  RH  035%=      5-min Rain = 0
KCL2 242019Z 24010KT 27/11 A3001 RMK A01 T02710106  RH  036%=      5-min Rain = 0
KCL2 242020Z 24010KT 27/10 A3001 RMK A01 T02720099  RH  034%=      5-min Rain = 0
KCL2 242021Z 26010KT 27/10 A30 RMK A01 T02710101  RH  035%=      5-min Rain = 0
KCL2 242022Z 26010KT 27/10 A30 RMK A01 T02700103  RH  035%=      5-min Rain = 0
KCL2 242023Z 25011KT 27/10 A30 RMK A01 T02710103  RH  035%=      5-min Rain = 0
KCL2 242024Z 23012KT 27/10 A30 RMK A01 T02710100  RH  034%=      5-min Rain = 0
KCL2 242025Z 22012KT 27/10 A30 RMK A01 T02700096  RH  033%=      5-min Rain = 0
KCL2 242026Z 22011KT 27/10 A30 RMK A01 T02690095  RH  033%=      5-min Rain = 0
KCL2 242027Z 24012KT 27/10 A30 RMK A01 T02690099  RH  034%=      5-min Rain = 0
KCL2 242028Z 23012KT 27/10 A30 RMK A01 T02710104  RH  035%=      5-min Rain = 0
KCL2 242029Z 23013KT 27/11 A30 RMK A01 T02740105  RH  035%=      5-min Rain = 0
KCL2 242030Z 25013KT 27/10 A30 RMK A01 T02740104  RH  034%=      5-min Rain = 0
KCL2 242031Z 25010KT 27/10 A30 RMK A01 T02720101  RH  034%=      5-min Rain = 0
KCL2 242032Z 25008KT 27/10 A30 RMK A01 T02690103  RH  035%=      5-min Rain = 0
KCL2 242033Z 26008KT 27/11 A30 RMK A01 T02690105  RH  036%=      5-min Rain = 0
KCL2 242034Z 23006KT 27/11 A30 RMK A01 T02740113  RH  037%=      5-min Rain = 0
KCL2 242035Z 22010G15KT 28/12 A30 RMK A01 T02790115  RH  036%=      5-min Rain = 0
KCL2 242036Z 22012KT 28/12 A30 RMK A01 T02790116  RH  036%=      5-min Rain = 0
KCL2 242037Z 23009KT 28/11 A30 RMK A01 T02760111  RH  036%=      5-min Rain = 0
KCL2 242038Z 24009KT 27/11 A30 RMK A01 T02740111  RH  036%=      5-min Rain = 0
KCL2 242039Z 24011KT 27/11 A30 RMK A01 T02720113  RH  037%=      5-min Rain = 0
KCL2 242040Z 24010KT 27/11 A30 RMK A01 T02710111  RH  037%=      5-min Rain = 0
KCL2 242041Z 25009KT 27/11 A30 RMK A01 T02720111  RH  037%=      5-min Rain = 0
KCL2 242042Z 24007KT 27/11 A30 RMK A01 T02730110  RH  036%=      5-min Rain = 0
KCL2 242043Z 21006KT 28/11 A30 RMK A01 T02760113  RH  036%=      5-min Rain = 0
KCL2 242044Z 22005KT 28/11 A30 RMK A01 T02760113  RH  036%=      5-min Rain = 0
KCL2 242045Z 26011KT 28/11 A30 RMK A01 T02760113  RH  036%=      5-min Rain = 0
KCL2 242046Z 26012KT 28/11 A2999 RMK A01 T02760110  RH  036%=      5-min Rain = 0
KCL2 242047Z 24007KT 27/11 A30 RMK A01 T02740108  RH  035%=      5-min Rain = 0
KCL2 242048Z 23007KT 27/11 A30 RMK A01 T02740112  RH  036%=      5-min Rain = 0
KCL2 242049Z 22012KT 28/11 A30 RMK A01 T02760111  RH  036%=      5-min Rain = 0
KCL2 242050Z 22009G14KT 27/11 A30 RMK A01 T02740108  RH  036%=      5-min Rain = 0
KCL2 242051Z 23011KT 27/11 A30 RMK A01 T02710108  RH  036%=      5-min Rain = 0
KCL2 242052Z 22007KT 27/11 A30 RMK A01 T02690105  RH  036%=      5-min Rain = 0
KCL2 242053Z 24012KT 27/11 A2999 RMK A01 T02680106  RH  036%=      5-min Rain = 0
KCL2 242054Z 23011KT 27/11 A2999 RMK A01 T02690107  RH  036%=      5-min Rain = 0
KCL2 242055Z 23011KT 27/10 A2999 RMK A01 T02690104  RH  035%=      5-min Rain = 0
KCL2 242056Z 23010KT 27/11 A2999 RMK A01 T02680108  RH  037%=      5-min Rain = 0
KCL2 242057Z 23014KT 27/11 A2999 RMK A01 T02690107  RH  036%=      5-min Rain = 0
KCL2 242058Z 24011KT 27/11 A2999 RMK A01 T02700106  RH  036%=      5-min Rain = 0
KCL2 242059Z 25009KT 27/11 A2999 RMK A01 T02710105  RH  035%=      5-min Rain = 0
KCL2 242100Z 26008KT 27/11 A2999 RMK A01 T02720107  RH  036%=      5-min Rain = 0
KCL2 242101Z 24008KT 28/11 A2999 RMK A01 T02750109  RH  036%=      5-min Rain = 0
KCL2 242102Z 23014KT 28/11 A2999 RMK A01 T02790110  RH  035%=      5-min Rain = 0
KCL2 242103Z 23012KT 28/11 A2999 RMK A01 T02800105  RH  034%=      5-min Rain = 0
KCL2 242104Z 23008KT 28/10 A2999 RMK A01 T02770104  RH  034%=      5-min Rain = 0
KCL2 242105Z 21007KT 28/11 A2999 RMK A01 T02770105  RH  034%=      5-min Rain = 0
KCL2 242106Z 22007KT 28/11 A2999 RMK A01 T02790105  RH  034%=      5-min Rain = 0
KCL2 242107Z 21007KT 28/11 A2999 RMK A01 T02790105  RH  034%=      5-min Rain = 0
KCL2 242108Z 21012KT 28/11 A2999 RMK A01 T02810109  RH  034%=      5-min Rain = 0
KCL2 242109Z 21013KT 28/11 A2999 RMK A01 T02810105  RH  034%=      5-min Rain = 0
KCL2 242110Z 22010KT 28/10 A2999 RMK A01 T02780104  RH  034%=      5-min Rain = 0
KCL2 242111Z 22008KT 28/11 A2999 RMK A01 T02770107  RH  035%=      5-min Rain = 0
KCL2 242112Z 22007KT 28/11 A2999 RMK A01 T02800107  RH  034%=      5-min Rain = 0
KCL2 242113Z 24008KT 28/11 A2999 RMK A01 T02810107  RH  034%=      5-min Rain = 0
KCL2 242114Z 22006KT 28/10 A2998 RMK A01 T02790103  RH  033%=      5-min Rain = 0
KCL2 242115Z 24007KT 28/11 A2998 RMK A01 T02780110  RH  035%=      5-min Rain = 0
KCL2 242116Z 23007KT 28/11 A2998 RMK A01 T02810107  RH  034%=      5-min Rain = 0
KCL2 242117Z 23008KT 28/11 A2998 RMK A01 T02810108  RH  034%=      5-min Rain = 0
KCL2 242118Z 21008KT 28/11 A2998 RMK A01 T02810110  RH  034%=      5-min Rain = 0
KCL2 242119Z 20008KT 28/11 A2998 RMK A01 T02810105  RH  033%=      5-min Rain = 0
KCL2 242120Z 19010KT 28/11 A2998 RMK A01 T02790107  RH  034%=      5-min Rain = 0
KCL2 242121Z 19009KT 28/11 A2998 RMK A01 T02800107  RH  034%=      5-min Rain = 0
KCL2 242122Z 20010KT 28/10 A2998 RMK A01 T02810104  RH  033%=      5-min Rain = 0
KCL2 242123Z 19009KT 28/10 A2998 RMK A01 T02790104  RH  034%=      5-min Rain = 0
KCL2 242124Z 18005KT 28/10 A2998 RMK A01 T02780101  RH  033%=      5-min Rain = 0
KCL2 242125Z 19006G12KT 28/10 A2998 RMK A01 T02760102  RH  034%=      5-min Rain = 0
KCL2 242126Z 19009G14KT 28/10 A2998 RMK A01 T02790102  RH  033%=      5-min Rain = 0
KCL2 242127Z 20014KT 28/09 A2998 RMK A01 T02820094  RH  031%=      5-min Rain = 0
KCL2 242128Z 21012KT 28/09 A2998 RMK A01 T02830088  RH  030%=      5-min Rain = 0
KCL2 242129Z 22014KT 28/09 A2998 RMK A01 T02830092  RH  030%=      5-min Rain = 0
KCL2 242130Z 21014KT 28/09 A2998 RMK A01 T02830086  RH  029%=      5-min Rain = 0
KCL2 242131Z 20010KT 28/08 A2998 RMK A01 T02790081  RH  029%=      5-min Rain = 0
KCL2 242132Z 21011KT 28/08 A2998 RMK A01 T02760082  RH  030%=      5-min Rain = 0
KCL2 242133Z 23010KT 28/08 A2998 RMK A01 T02750084  RH  030%=      5-min Rain = 0
KCL2 242134Z 21009KT 28/09 A2998 RMK A01 T02750087  RH  031%=      5-min Rain = 0
KCL2 242135Z 21009KT 28/08 A2998 RMK A01 T02760084  RH  030%=      5-min Rain = 0
KCL2 242136Z 24013KT 28/09 A2998 RMK A01 T02780088  RH  030%=      5-min Rain = 0
KCL2 242137Z 24012KT 28/08 A2998 RMK A01 T02780083  RH  029%=      5-min Rain = 0
KCL2 242138Z 24013KT 28/08 A2998 RMK A01 T02780083  RH  029%=      5-min Rain = 0
KCL2 242139Z 23011KT 28/09 A2998 RMK A01 T02780086  RH  030%=      5-min Rain = 0
KCL2 242140Z 22013KT 28/09 A2998 RMK A01 T02820085  RH  029%=      5-min Rain = 0
KCL2 242141Z 22011KT 28/08 A2998 RMK A01 T02830081  RH  028%=      5-min Rain = 0
KCL2 242142Z 22010KT 28/08 A2998 RMK A01 T02820084  RH  029%=      5-min Rain = 0
KCL2 242143Z 24012KT 28/09 A2998 RMK A01 T02830085  RH  029%=      5-min Rain = 0
KCL2 242144Z 24012KT 28/08 A2998 RMK A01 T02830079  RH  028%=      5-min Rain = 0
KCL2 242145Z 24008KT 28/08 A2998 RMK A01 T02810077  RH  028%=      5-min Rain = 0
KCL2 242146Z 24007KT 28/08 A2998 RMK A01 T02800076  RH  028%=      5-min Rain = 0
KCL2 242147Z 23007KT 28/08 A2998 RMK A01 T02790080  RH  028%=      5-min Rain = 0
KCL2 242148Z 23006KT 28/08 A2997 RMK A01 T02800080  RH  028%=      5-min Rain = 0
KCL2 242149Z 23008KT 28/08 A2997 RMK A01 T02820081  RH  028%=      5-min Rain = 0
KCL2 242150Z 23008KT 28/08 A2997 RMK A01 T02820082  RH  028%=      5-min Rain = 0
KCL2 242151Z 23008KT 28/09 A2997 RMK A01 T02820088  RH  029%=      5-min Rain = 0
KCL2 242152Z 22009KT 29/09 A2997 RMK A01 T02850086  RH  029%=      5-min Rain = 0
KCL2 242153Z 23008KT 29/08 A2997 RMK A01 T02850080  RH  028%=      5-min Rain = 0
KCL2 242154Z 24009KT 28/09 A2997 RMK A01 T02830086  RH  029%=      5-min Rain = 0
KCL2 242155Z 23011KT 28/09 A2997 RMK A01 T02830085  RH  029%=      5-min Rain = 0
KCL2 242156Z 23009KT 28/08 A2997 RMK A01 T02830084  RH  029%=      5-min Rain = 0
KCL2 242157Z 22009KT 28/08 A2997 RMK A01 T02830083  RH  029%=      5-min Rain = 0
KCL2 242158Z 21011KT 28/08 A2997 RMK A01 T02790084  RH  029%=      5-min Rain = 0
KCL2 242159Z 22010KT 27/08 A2997 RMK A01 T02730080  RH  030%=      5-min Rain = 0
KCL2 242200Z 22010KT 27/08 A2997 RMK A01 T02690080  RH  030%=      5-min Rain = 0
KCL2 242201Z 22009KT 27/08 A2997 RMK A01 T02660081  RH  031%=      5-min Rain = 0
KCL2 242202Z 21008KT 27/08 A2997 RMK A01 T02650081  RH  031%=      5-min Rain = 0
KCL2 242203Z 21007KT 27/08 A2997 RMK A01 T02650079  RH  031%=      5-min Rain = 0
KCL2 242204Z 22005KT 27/08 A2997 RMK A01 T02690081  RH  030%=      5-min Rain = 0
KCL2 242205Z 22005KT 27/08 A2997 RMK A01 T02730077  RH  029%=      5-min Rain = 0
KCL2 242206Z 24006KT 27/08 A2997 RMK A01 T02740079  RH  029%=      5-min Rain = 0
KCL2 242207Z 25007KT 28/08 A2997 RMK A01 T02770079  RH  029%=      5-min Rain = 0
KCL2 242208Z 24005KT 28/08 A2997 RMK A01 T02790075  RH  028%=      5-min Rain = 0
KCL2 242209Z 23006KT 28/08 A2997 RMK A01 T02790077  RH  028%=      5-min Rain = 0
KCL2 242210Z 22008KT 28/08 A2997 RMK A01 T02790079  RH  028%=      5-min Rain = 0
KCL2 242211Z 24007KT 28/08 A2997 RMK A01 T02800081  RH  029%=      5-min Rain = 0
KCL2 242212Z 25007KT 28/08 A2997 RMK A01 T02810078  RH  028%=      5-min Rain = 0
KCL2 242213Z 23008KT 28/08 A2997 RMK A01 T02820079  RH  028%=      5-min Rain = 0
KCL2 242214Z 22009KT 28/08 A2997 RMK A01 T02820081  RH  028%=      5-min Rain = 0
KCL2 242215Z 23012KT 28/08 A2997 RMK A01 T02830078  RH  028%=      5-min Rain = 0
KCL2 242216Z 23012KT 28/07 A2997 RMK A01 T02810074  RH  027%=      5-min Rain = 0
KCL2 242217Z 23010KT 28/07 A2997 RMK A01 T02770072  RH  027%=      5-min Rain = 0
KCL2 242218Z 23012KT 28/08 A2997 RMK A01 T02760076  RH  028%=      5-min Rain = 0
KCL2 242219Z 23014KT 28/08 A2997 RMK A01 T02750077  RH  029%=      5-min Rain = 0
KCL2 242220Z 23012KT 27/08 A2997 RMK A01 T02740078  RH  029%=      5-min Rain = 0
KCL2 242221Z 22012KT 28/08 A2997 RMK A01 T02770078  RH  029%=      5-min Rain = 0
KCL2 242222Z 23012KT 28/08 A2997 RMK A01 T02820079  RH  028%=      5-min Rain = 0
KCL2 242223Z 23012KT 29/08 A2997 RMK A01 T02850080  RH  028%=      5-min Rain = 0
KCL2 242224Z 23012KT 29/08 A2997 RMK A01 T02860079  RH  027%=      5-min Rain = 0
KCL2 242225Z 23012KT 29/08 A2997 RMK A01 T02850078  RH  027%=      5-min Rain = 0
KCL2 242226Z 23013KT 28/08 A2997 RMK A01 T02810075  RH  027%=      5-min Rain = 0
KCL2 242227Z 24012KT 28/08 A2997 RMK A01 T02760075  RH  028%=      5-min Rain = 0
KCL2 242228Z 24009KT 28/08 A2997 RMK A01 T02750079  RH  029%=      5-min Rain = 0
KCL2 242229Z 25012KT 28/08 A2997 RMK A01 T02770080  RH  029%=      5-min Rain = 0
KCL2 242230Z 26010KT 28/08 A2997 RMK A01 T02790076  RH  028%=      5-min Rain = 0
KCL2 242231Z 23009KT 28/08 A2997 RMK A01 T02800081  RH  029%=      5-min Rain = 0
KCL2 242232Z 24009KT 28/08 A2997 RMK A01 T02810083  RH  029%=      5-min Rain = 0
KCL2 242233Z 24007KT 28/08 A2997 RMK A01 T02810079  RH  028%=      5-min Rain = 0
KCL2 242234Z 23008KT 28/08 A2997 RMK A01 T02820083  RH  029%=      5-min Rain = 0
KCL2 242235Z 24007KT 28/08 A2997 RMK A01 T02830082  RH  028%=      5-min Rain = 0
KCL2 242236Z 25005KT 28/08 A2997 RMK A01 T02800079  RH  028%=      5-min Rain = 0
KCL2 242237Z 24005KT 28/08 A2996 RMK A01 T02780081  RH  029%=      5-min Rain = 0
KCL2 242238Z 23004KT 28/08 A2996 RMK A01 T02770082  RH  029%=      5-min Rain = 0
KCL2 242239Z 22005KT 28/08 A2996 RMK A01 T02790084  RH  029%=      5-min Rain = 0
KCL2 242240Z 22014KT 28/08 A2996 RMK A01 T02810081  RH  028%=      5-min Rain = 0
KCL2 242241Z 22013KT 28/08 A2996 RMK A01 T02810079  RH  028%=      5-min Rain = 0
KCL2 242242Z 23012KT 28/08 A2996 RMK A01 T02790077  RH  028%=      5-min Rain = 0
KCL2 242243Z 24009KT 28/08 A2996 RMK A01 T02750075  RH  028%=      5-min Rain = 0
KCL2 242244Z 23010KT 27/08 A2996 RMK A01 T02720078  RH  029%=      5-min Rain = 0
KCL2 242245Z 24009KT 27/08 A2996 RMK A01 T02690080  RH  030%=      5-min Rain = 0
KCL2 242246Z 24009KT 27/08 A2996 RMK A01 T02690077  RH  030%=      5-min Rain = 0
KCL2 242247Z 25010KT 27/08 A2996 RMK A01 T02680079  RH  030%=      5-min Rain = 0
KCL2 242248Z 24009KT 27/08 A2996 RMK A01 T02680080  RH  030%=      5-min Rain = 0
KCL2 242249Z 25008KT 27/08 A2996 RMK A01 T02670082  RH  031%=      5-min Rain = 0
KCL2 242250Z 24008KT 27/08 A2996 RMK A01 T02660081  RH  031%=      5-min Rain = 0
KCL2 242251Z 24008KT 27/08 A2996 RMK A01 T02670079  RH  030%=      5-min Rain = 0
KCL2 242252Z 25008KT 27/08 A2996 RMK A01 T02660080  RH  031%=      5-min Rain = 0
KCL2 242253Z 25008KT 27/08 A2996 RMK A01 T02660083  RH  031%=      5-min Rain = 0
KCL2 242254Z 25008KT 27/08 A2996 RMK A01 T02650082  RH  031%=      5-min Rain = 0
KCL2 242255Z 26008KT 27/08 A2996 RMK A01 T02650082  RH  032%=      5-min Rain = 0
KCL2 242256Z 25008KT 26/08 A2996 RMK A01 T02640083  RH  032%=      5-min Rain = 0
KCL2 242257Z 25007KT 26/08 A2996 RMK A01 T02640082  RH  032%=      5-min Rain = 0
KCL2 242258Z 25008KT 26/08 A2996 RMK A01 T02640083  RH  032%=      5-min Rain = 0
KCL2 242259Z 24007KT 27/09 A2996 RMK A01 T02650086  RH  032%=      5-min Rain = 0
KCL2 242300Z 22007KT 27/09 A2996 RMK A01 T02700089  RH  032%=      5-min Rain = 0
KCL2 242301Z 22007KT 28/09 A2996 RMK A01 T02750088  RH  031%=      5-min Rain = 0
KCL2 242302Z 22007KT 28/08 A2996 RMK A01 T02780082  RH  029%=      5-min Rain = 0
KCL2 242303Z 22006KT 28/08 A2996 RMK A01 T02800082  RH  029%=      5-min Rain = 0
KCL2 242304Z 24007KT 28/08 A2996 RMK A01 T02810083  RH  029%=      5-min Rain = 0
KCL2 242305Z 25006KT 28/07 A2996 RMK A01 T02800070  RH  027%=      5-min Rain = 0
KCL2 242306Z 25008KT 28/07 A2996 RMK A01 T02760073  RH  028%=      5-min Rain = 0
KCL2 242307Z 25005KT 27/07 A2996 RMK A01 T02730069  RH  027%=      5-min Rain = 0
KCL2 242308Z 25004KT 27/07 A2996 RMK A01 T02720073  RH  028%=      5-min Rain = 0
KCL2 242309Z 22005KT 27/08 A2996 RMK A01 T02710076  RH  029%=      5-min Rain = 0
KCL2 242310Z 22004KT 27/07 A2996 RMK A01 T02700071  RH  028%=      5-min Rain = 0
KCL2 242311Z 21007KT 27/07 A2996 RMK A01 T02690071  RH  028%=      5-min Rain = 0
KCL2 242312Z 23007KT 27/07 A2996 RMK A01 T02690071  RH  028%=      5-min Rain = 0
KCL2 242313Z 24009KT 27/07 A2996 RMK A01 T02690072  RH  029%=      5-min Rain = 0
KCL2 242314Z 23009KT 27/07 A2996 RMK A01 T02690074  RH  029%=      5-min Rain = 0
KCL2 242315Z 22010KT 27/07 A2996 RMK A01 T02690074  RH  029%=      5-min Rain = 0
KCL2 242316Z 21009KT 27/07 A2996 RMK A01 T02710074  RH  029%=      5-min Rain = 0
KCL2 242317Z 22009KT 27/07 A2996 RMK A01 T02740074  RH  028%=      5-min Rain = 0
KCL2 242318Z 22010KT 28/08 A2996 RMK A01 T02760077  RH  028%=      5-min Rain = 0
KCL2 242319Z 23010KT 28/08 A2996 RMK A01 T02780078  RH  028%=      5-min Rain = 0
KCL2 242320Z 24009KT 28/08 A2996 RMK A01 T02760076  RH  028%=      5-min Rain = 0
KCL2 242321Z 26006KT 27/07 A2996 RMK A01 T02740070  RH  027%=      5-min Rain = 0
KCL2 242322Z 23009KT 27/08 A2996 RMK A01 T02720076  RH  029%=      5-min Rain = 0
KCL2 242323Z 23011KT 27/08 A2996 RMK A01 T02710075  RH  029%=      5-min Rain = 0
KCL2 242324Z 23010KT 27/07 A2996 RMK A01 T02690074  RH  029%=      5-min Rain = 0
KCL2 242325Z 22010KT 27/07 A2996 RMK A01 T02680073  RH  029%=      5-min Rain = 0
KCL2 242326Z 22009KT 27/07 A2996 RMK A01 T02680072  RH  029%=      5-min Rain = 0
KCL2 242327Z 21010KT 27/07 A2996 RMK A01 T02670072  RH  029%=      5-min Rain = 0
KCL2 242328Z 22008KT 27/07 A2997 RMK A01 T02670072  RH  029%=      5-min Rain = 0
KCL2 242329Z 24007KT 27/08 A2997 RMK A01 T02670076  RH  030%=      5-min Rain = 0
KCL2 242330Z 24007KT 27/08 A2997 RMK A01 T02660080  RH  031%=      5-min Rain = 0
KCL2 242331Z 24007KT 27/08 A2997 RMK A01 T02660080  RH  031%=      5-min Rain = 0
KCL2 242332Z 25006KT 27/08 A2997 RMK A01 T02650080  RH  031%=      5-min Rain = 0
KCL2 242333Z 25007KT 26/08 A2997 RMK A01 T02640080  RH  031%=      5-min Rain = 0
KCL2 242334Z 26006KT 26/08 A2997 RMK A01 T02640083  RH  032%=      5-min Rain = 0
KCL2 242335Z 26006KT 26/08 A2997 RMK A01 T02620083  RH  032%=      5-min Rain = 0
KCL2 242336Z 26007KT 26/08 A2997 RMK A01 T02620084  RH  032%=      5-min Rain = 0
KCL2 242337Z 26006KT 26/08 A2997 RMK A01 T02610083  RH  032%=      5-min Rain = 0
KCL2 242338Z 26007KT 26/08 A2997 RMK A01 T02600082  RH  032%=      5-min Rain = 0
KCL2 242339Z 26006KT 26/08 A2997 RMK A01 T02590084  RH  033%=      5-min Rain = 0
KCL2 242340Z 26006KT 26/08 A2997 RMK A01 T02590084  RH  033%=      5-min Rain = 0
KCL2 242341Z 26007KT 26/08 A2997 RMK A01 T02580083  RH  033%=      5-min Rain = 0
KCL2 242342Z 25007KT 26/08 A2997 RMK A01 T02580084  RH  033%=      5-min Rain = 0
KCL2 242343Z 26006KT 26/09 A2997 RMK A01 T02570085  RH  033%=      5-min Rain = 0
KCL2 242344Z 26005KT 26/09 A2997 RMK A01 T02570085  RH  033%=      5-min Rain = 0
KCL2 242345Z 26005KT 26/09 A2997 RMK A01 T02570087  RH  034%=      5-min Rain = 0
KCL2 242346Z 26006KT 26/09 A2997 RMK A01 T02560086  RH  034%=      5-min Rain = 0
KCL2 242347Z 26006KT 26/09 A2997 RMK A01 T02560086  RH  034%=      5-min Rain = 0
KCL2 242348Z 26005KT 26/09 A2997 RMK A01 T02560086  RH  034%=      5-min Rain = 0
KCL2 242349Z 26006KT 26/09 A2997 RMK A01 T02550086  RH  034%=      5-min Rain = 0
KCL2 242350Z 25005KT 26/09 A2997 RMK A01 T02550086  RH  034%=      5-min Rain = 0
KCL2 242351Z 25006KT 25/09 A2997 RMK A01 T02540087  RH  035%=      5-min Rain = 0
KCL2 242352Z 25006KT 25/09 A2997 RMK A01 T02540086  RH  035%=      5-min Rain = 0
KCL2 242353Z 24004KT 25/09 A2997 RMK A01 T02540087  RH  035%=      5-min Rain = 0
KCL2 242354Z 25005KT 25/09 A2997 RMK A01 T02530088  RH  035%=      5-min Rain = 0
KCL2 242355Z 26004KT 25/09 A2997 RMK A01 T02530087  RH  035%=      5-min Rain = 0
KCL2 242356Z 27004KT 25/09 A2997 RMK A01 T02530087  RH  035%=      5-min Rain = 0
KCL2 242357Z 27005KT 25/08 A2997 RMK A01 T02530082  RH  034%=      5-min Rain = 0
KCL2 242358Z 28004KT 25/08 A2997 RMK A01 T02540083  RH  034%=      5-min Rain = 0
KCL2 242359Z 30005KT 25/09 A2998 RMK A01 T02540086  RH  034%=      5-min Rain = 0
KCL2 250000Z 33008G13KT 25/09 A2998 RMK A01 T02530091  RH  036%=      5-min Rain = 0
KCL2 250001Z 35010KT 25/10 A2998 RMK A01 T02500098  RH  038%=      5-min Rain = 0
KCL2 250002Z 00010KT 25/10 A2998 RMK A01 T02460100  RH  040%=      5-min Rain = 0
KCL2 250003Z 01007KT 24/10 A2998 RMK A01 T02430101  RH  041%=      5-min Rain = 0
KCL2 250004Z 00011KT 24/10 A2998 RMK A01 T02420103  RH  041%=      5-min Rain = 0
KCL2 250005Z 36014KT 24/10 A2998 RMK A01 T02410103  RH  042%=      5-min Rain = 0
KCL2 250006Z 36013KT 24/10 A2998 RMK A01 T02400102  RH  042%=      5-min Rain = 0
KCL2 250007Z 36009KT 24/10 A2998 RMK A01 T02400104  RH  042%=      5-min Rain = 0
KCL2 250008Z 35011KT 24/10 A2998 RMK A01 T02390104  RH  042%=      5-min Rain = 0
KCL2 250009Z 35010KT 24/10 A2998 RMK A01 T02390104  RH  043%=      5-min Rain = 0
KCL2 250010Z 00011KT 24/10 A2999 RMK A01 T02380104  RH  043%=      5-min Rain = 0
KCL2 250011Z 01010KT 24/10 A2999 RMK A01 T02380104  RH  043%=      5-min Rain = 0
KCL2 250012Z 36011KT 24/11 A2999 RMK A01 T02390105  RH  043%=      5-min Rain = 0
KCL2 250013Z 00009KT 24/10 A2999 RMK A01 T02380103  RH  042%=      5-min Rain = 0
KCL2 250014Z 36006KT 24/10 A2999 RMK A01 T02380103  RH  042%=      5-min Rain = 0
KCL2 250015Z 34005KT 24/10 A2999 RMK A01 T02380104  RH  043%=      5-min Rain = 0
KCL2 250016Z 34008KT 24/11 A2999 RMK A01 T02380105  RH  043%=      5-min Rain = 0
KCL2 250017Z 33005KT 24/10 A2999 RMK A01 T02370104  RH  043%=      5-min Rain = 0
KCL2 250018Z 33007KT 24/11 A2999 RMK A01 T02360105  RH  043%=      5-min Rain = 0
KCL2 250019Z 33006KT 24/10 A2999 RMK A01 T02360103  RH  043%=      5-min Rain = 0
KCL2 250020Z 32007KT 24/10 A2999 RMK A01 T02360103  RH  043%=      5-min Rain = 0
KCL2 250021Z 33006KT 24/10 A2999 RMK A01 T02360102  RH  043%=      5-min Rain = 0
KCL2 250022Z 35005KT 24/10 A2999 RMK A01 T02360102  RH  043%=      5-min Rain = 0
KCL2 250023Z 00009KT 24/10 A2999 RMK A01 T02350101  RH  042%=      5-min Rain = 0
KCL2 250024Z 36008KT 24/10 A2999 RMK A01 T02350097  RH  041%=      5-min Rain = 0
KCL2 250025Z 00008KT 23/10 A2999 RMK A01 T02340097  RH  042%=      5-min Rain = 0
KCL2 250026Z 00010KT 23/10 A2999 RMK A01 T02340096  RH  042%=      5-min Rain = 0
KCL2 250027Z 36011KT 23/09 A2999 RMK A01 T02330094  RH  041%=      5-min Rain = 0
KCL2 250028Z 00009KT 23/09 A2999 RMK A01 T02320093  RH  041%=      5-min Rain = 0
KCL2 250029Z 01009KT 23/10 A2999 RMK A01 T02320095  RH  042%=      5-min Rain = 0
KCL2 250030Z 01007KT 23/09 A2999 RMK A01 T02310094  RH  042%=      5-min Rain = 0
KCL2 250031Z 04006KT 23/09 A2999 RMK A01 T02310094  RH  042%=      5-min Rain = 0
KCL2 250032Z 01009KT 23/10 A2999 RMK A01 T02290096  RH  043%=      5-min Rain = 0
KCL2 250033Z 01009KT 23/09 A2999 RMK A01 T02290092  RH  042%=      5-min Rain = 0
KCL2 250034Z 02008KT 23/09 A2999 RMK A01 T02280092  RH  042%=      5-min Rain = 0
KCL2 250035Z 02009KT 23/09 A2999 RMK A01 T02280094  RH  042%=      5-min Rain = 0
KCL2 250036Z 02008KT 23/09 A2999 RMK A01 T02270093  RH  043%=      5-min Rain = 0
KCL2 250037Z 02008KT 23/09 A2999 RMK A01 T02260094  RH  043%=      5-min Rain = 0
KCL2 250038Z 01008KT 23/09 A2999 RMK A01 T02250094  RH  043%=      5-min Rain = 0
KCL2 250039Z 01008KT 23/09 A2999 RMK A01 T02250093  RH  043%=      5-min Rain = 0
KCL2 250040Z 36008KT 22/09 A30 RMK A01 T02240093  RH  043%=      5-min Rain = 0
KCL2 250041Z 35010KT 22/09 A30 RMK A01 T02240093  RH  043%=      5-min Rain = 0
KCL2 250042Z 35010KT 22/09 A30 RMK A01 T02230092  RH  043%=      5-min Rain = 0
KCL2 250043Z 35010KT 22/09 A30 RMK A01 T02210090  RH  043%=      5-min Rain = 0
KCL2 250044Z 00008KT 22/09 A30 RMK A01 T02200090  RH  043%=      5-min Rain = 0
KCL2 250045Z 36008KT 22/09 A30 RMK A01 T02190089  RH  043%=      5-min Rain = 0
KCL2 250046Z 01008KT 22/09 A3001 RMK A01 T02190088  RH  043%=      5-min Rain = 0
KCL2 250047Z 01008KT 22/09 A3001 RMK A01 T02190089  RH  043%=      5-min Rain = 0
KCL2 250048Z 00008KT 22/09 A30 RMK A01 T02190089  RH  043%=      5-min Rain = 0
KCL2 250049Z 01010KT 22/09 A3001 RMK A01 T02180086  RH  043%=      5-min Rain = 0
KCL2 250050Z 01008KT 22/09 A3001 RMK A01 T02180086  RH  043%=      5-min Rain = 0
KCL2 250051Z 01008KT 22/09 A3001 RMK A01 T02180087  RH  043%=      5-min Rain = 0
KCL2 250052Z 01008KT 22/09 A3001 RMK A01 T02170086  RH  043%=      5-min Rain = 0
KCL2 250053Z 01007KT 22/09 A3001 RMK A01 T02170087  RH  043%=      5-min Rain = 0
KCL2 250054Z 01008KT 22/09 A3001 RMK A01 T02150086  RH  043%=      5-min Rain = 0
KCL2 250055Z 01007KT 22/09 A3001 RMK A01 T02150085  RH  043%=      5-min Rain = 0
KCL2 250056Z 02008KT 22/09 A3001 RMK A01 T02150085  RH  043%=      5-min Rain = 0
KCL2 250057Z 02007KT 21/09 A3001 RMK A01 T02140085  RH  043%=      5-min Rain = 0
KCL2 250058Z 02007KT 21/09 A3001 RMK A01 T02130086  RH  044%=      5-min Rain = 0
KCL2 250059Z 02007KT 21/09 A3001 RMK A01 T02110086  RH  045%=      5-min Rain = 0
KCL2 250100Z 02007KT 21/09 A3001 RMK A01 T02100085  RH  045%=      5-min Rain = 0
KCL2 250101Z 02006KT 21/09 A3001 RMK A01 T02090085  RH  045%=      5-min Rain = 0
KCL2 250102Z 02006KT 21/09 A3001 RMK A01 T02090085  RH  045%=      5-min Rain = 0
KCL2 250103Z 01006KT 21/09 A3001 RMK A01 T02080085  RH  045%=      5-min Rain = 0
KCL2 250104Z 01006KT 21/08 A3001 RMK A01 T02070084  RH  045%=      5-min Rain = 0
KCL2 250105Z 00006KT 21/08 A3001 RMK A01 T02060084  RH  045%=      5-min Rain = 0
KCL2 250106Z 00006KT 21/08 A3001 RMK A01 T02060084  RH  045%=      5-min Rain = 0
KCL2 250107Z 01007KT 21/08 A3001 RMK A01 T02050084  RH  046%=      5-min Rain = 0
KCL2 250108Z 01007KT 20/08 A3001 RMK A01 T02040084  RH  046%=      5-min Rain = 0
KCL2 250109Z 02007KT 20/09 A3001 RMK A01 T02030085  RH  047%=      5-min Rain = 0
KCL2 250110Z 03007KT 20/09 A3001 RMK A01 T02020086  RH  047%=      5-min Rain = 0
KCL2 250111Z 03007KT 20/09 A3001 RMK A01 T02010085  RH  047%=      5-min Rain = 0
KCL2 250112Z 03007KT 20/08 A3001 RMK A01 T01990084  RH  047%=      5-min Rain = 0
KCL2 250113Z 03007KT 20/08 A3001 RMK A01 T01980083  RH  047%=      5-min Rain = 0
KCL2 250114Z 03006KT 20/08 A3001 RMK A01 T01970084  RH  048%=      5-min Rain = 0
KCL2 250115Z 03006KT 20/08 A3001 RMK A01 T01960084  RH  048%=      5-min Rain = 0
KCL2 250116Z 02006KT 20/08 A3001 RMK A01 T01950084  RH  049%=      5-min Rain = 0
KCL2 250117Z 03006KT 19/09 A3001 RMK A01 T01940085  RH  049%=      5-min Rain = 0
KCL2 250118Z 03007KT 19/09 A3001 RMK A01 T01940085  RH  049%=      5-min Rain = 0
KCL2 250119Z 03007KT 19/09 A3001 RMK A01 T01940085  RH  049%=      5-min Rain = 0
KCL2 250120Z 03007KT 19/09 A3001 RMK A01 T01930086  RH  050%=      5-min Rain = 0
KCL2 250121Z 03007KT 19/09 A3001 RMK A01 T01920087  RH  051%=      5-min Rain = 0
KCL2 250122Z 03007KT 19/09 A3001 RMK A01 T01900087  RH  051%=      5-min Rain = 0
KCL2 250123Z 03007KT 19/09 A3001 RMK A01 T01890087  RH  052%=      5-min Rain = 0
KCL2 250124Z 03006KT 19/09 A3001 RMK A01 T01880086  RH  052%=      5-min Rain = 0
KCL2 250125Z 03007KT 19/09 A3001 RMK A01 T01880087  RH  052%=      5-min Rain = 0
KCL2 250126Z 03007KT 19/09 A3001 RMK A01 T01880085  RH  051%=      5-min Rain = 0
KCL2 250127Z 03007KT 19/08 A3001 RMK A01 T01900083  RH  050%=      5-min Rain = 0
KCL2 250128Z 03007KT 19/08 A3001 RMK A01 T01910083  RH  050%=      5-min Rain = 0
KCL2 250129Z 03007KT 19/08 A3002 RMK A01 T01920084  RH  050%=      5-min Rain = 0
KCL2 250130Z 02006KT 19/08 A3002 RMK A01 T01910084  RH  050%=      5-min Rain = 0
KCL2 250131Z 02006KT 19/08 A3002 RMK A01 T01900084  RH  050%=      5-min Rain = 0
KCL2 250132Z 02006KT 19/09 A3002 RMK A01 T01900085  RH  051%=      5-min Rain = 0
KCL2 250133Z 02005KT 19/09 A3002 RMK A01 T01890085  RH  051%=      5-min Rain = 0
KCL2 250134Z 03006KT 19/09 A3002 RMK A01 T01880085  RH  051%=      5-min Rain = 0
KCL2 250135Z 03006KT 19/08 A3002 RMK A01 T01870084  RH  051%=      5-min Rain = 0
KCL2 250136Z 04006KT 19/08 A3002 RMK A01 T01850084  RH  052%=      5-min Rain = 0
KCL2 250137Z 04005KT 18/08 A3002 RMK A01 T01840083  RH  052%=      5-min Rain = 0
KCL2 250138Z 04006KT 18/08 A3002 RMK A01 T01840082  RH  052%=      5-min Rain = 0
KCL2 250139Z 04006KT 18/08 A3002 RMK A01 T01840081  RH  051%=      5-min Rain = 0
KCL2 250140Z 03005KT 18/08 A3002 RMK A01 T01840081  RH  051%=      5-min Rain = 0
KCL2 250141Z 04006KT 18/08 A3002 RMK A01 T01840081  RH  051%=      5-min Rain = 0
KCL2 250142Z 04006KT 18/08 A3002 RMK A01 T01840081  RH  051%=      5-min Rain = 0
KCL2 250143Z 03006KT 18/08 A3002 RMK A01 T01830081  RH  051%=      5-min Rain = 0
KCL2 250144Z 04007KT 18/08 A3002 RMK A01 T01830081  RH  051%=      5-min Rain = 0
KCL2 250145Z 04007KT 18/08 A3002 RMK A01 T01810081  RH  052%=      5-min Rain = 0
KCL2 250146Z 05007KT 18/08 A3002 RMK A01 T01810080  RH  052%=      5-min Rain = 0
KCL2 250147Z 05006KT 18/08 A3002 RMK A01 T01800080  RH  052%=      5-min Rain = 0
KCL2 250148Z 05006KT 18/08 A3002 RMK A01 T01800079  RH  051%=      5-min Rain = 0
KCL2 250149Z 05006KT 18/08 A3002 RMK A01 T01810079  RH  051%=      5-min Rain = 0
KCL2 250150Z 04007KT 18/08 A3002 RMK A01 T01810078  RH  051%=      5-min Rain = 0
KCL2 250151Z 05006KT 18/08 A3002 RMK A01 T01820078  RH  051%=      5-min Rain = 0
KCL2 250152Z 05006KT 18/08 A3002 RMK A01 T01820079  RH  051%=      5-min Rain = 0
KCL2 250153Z 06007KT 18/08 A3002 RMK A01 T01820079  RH  051%=      5-min Rain = 0
KCL2 250154Z 06007KT 18/08 A3003 RMK A01 T01820079  RH  051%=      5-min Rain = 0
KCL2 250155Z 05007KT 18/08 A3003 RMK A01 T01810079  RH  051%=      5-min Rain = 0
KCL2 250156Z 05006KT 18/08 A3003 RMK A01 T01810080  RH  051%=      5-min Rain = 0
KCL2 250157Z 05007KT 18/08 A3003 RMK A01 T01810080  RH  052%=      5-min Rain = 0
KCL2 250158Z 05007KT 18/08 A3003 RMK A01 T01800080  RH  052%=      5-min Rain = 0
KCL2 250159Z 04007KT 18/08 A3003 RMK A01 T01780080  RH  052%=      5-min Rain = 0
KCL2 250200Z 04007KT 18/08 A3003 RMK A01 T01780079  RH  052%=      5-min Rain = 0
KCL2 250201Z 04006KT 18/08 A3003 RMK A01 T01790079  RH  052%=      5-min Rain = 0
KCL2 250202Z 04006KT 18/08 A3003 RMK A01 T01790079  RH  052%=      5-min Rain = 0
KCL2 250203Z 04007KT 18/08 A3003 RMK A01 T01790080  RH  052%=      5-min Rain = 0
KCL2 250204Z 03008KT 18/08 A3003 RMK A01 T01780080  RH  053%=      5-min Rain = 0
KCL2 250205Z 03008KT 18/08 A3003 RMK A01 T01780081  RH  053%=      5-min Rain = 0
KCL2 250206Z 03007KT 18/08 A3003 RMK A01 T01770080  RH  053%=      5-min Rain = 0
KCL2 250207Z 04007KT 18/08 A3003 RMK A01 T01770081  RH  053%=      5-min Rain = 0
KCL2 250208Z 04007KT 18/08 A3003 RMK A01 T01770080  RH  053%=      5-min Rain = 0
KCL2 250209Z 04007KT 18/08 A3003 RMK A01 T01760079  RH  053%=      5-min Rain = 0
KCL2 250210Z 04007KT 18/08 A3003 RMK A01 T01760079  RH  053%=      5-min Rain = 0
KCL2 250211Z 03007KT 18/08 A3003 RMK A01 T01760079  RH  053%=      5-min Rain = 0
KCL2 250212Z 03008KT 18/08 A3003 RMK A01 T01760080  RH  053%=      5-min Rain = 0
KCL2 250213Z 03008KT 18/08 A3003 RMK A01 T01760080  RH  053%=      5-min Rain = 0
KCL2 250214Z 03008KT 18/08 A3003 RMK A01 T01760080  RH  053%=      5-min Rain = 0
KCL2 250215Z 04008KT 18/08 A3003 RMK A01 T01760080  RH  053%=      5-min Rain = 0
KCL2 250216Z 04008KT 18/08 A3003 RMK A01 T01760080  RH  054%=      5-min Rain = 0
KCL2 250217Z 04008KT 18/08 A3003 RMK A01 T01750080  RH  054%=      5-min Rain = 0
KCL2 250218Z 04007KT 18/08 A3003 RMK A01 T01750080  RH  054%=      5-min Rain = 0
KCL2 250219Z 04008KT 17/08 A3003 RMK A01 T01740081  RH  054%=      5-min Rain = 0
KCL2 250220Z 04008KT 17/08 A3003 RMK A01 T01730080  RH  054%=      5-min Rain = 0
KCL2 250221Z 04008KT 17/08 A3003 RMK A01 T01730080  RH  054%=      5-min Rain = 0
KCL2 250222Z 04007KT 17/08 A3003 RMK A01 T01730080  RH  054%=      5-min Rain = 0
KCL2 250223Z 05007KT 17/08 A3003 RMK A01 T01730080  RH  054%=      5-min Rain = 0
KCL2 250224Z 05007KT 17/08 A3003 RMK A01 T01730080  RH  054%=      5-min Rain = 0
KCL2 250225Z 06007KT 17/08 A3003 RMK A01 T01730080  RH  054%=      5-min Rain = 0
KCL2 250226Z 06007KT 17/08 A3003 RMK A01 T01730080  RH  054%=      5-min Rain = 0
KCL2 250227Z 06007KT 17/08 A3003 RMK A01 T01730080  RH  054%=      5-min Rain = 0
KCL2 250228Z 06007KT 18/08 A3003 RMK A01 T01750080  RH  054%=      5-min Rain = 0
KCL2 250229Z 06007KT 18/08 A3003 RMK A01 T01750080  RH  053%=      5-min Rain = 0
KCL2 250230Z 06007KT 18/08 A3003 RMK A01 T01750080  RH  053%=      5-min Rain = 0
KCL2 250231Z 06007KT 18/08 A3003 RMK A01 T01760080  RH  053%=      5-min Rain = 0
KCL2 250232Z 06007KT 18/08 A3003 RMK A01 T01760079  RH  053%=      5-min Rain = 0
KCL2 250233Z 06008KT 18/08 A3003 RMK A01 T01770079  RH  053%=      5-min Rain = 0
KCL2 250234Z 05007KT 18/08 A3003 RMK A01 T01780080  RH  053%=      5-min Rain = 0
KCL2 250235Z 05008KT 18/08 A3003 RMK A01 T01770080  RH  053%=      5-min Rain = 0
KCL2 250236Z 05008KT 18/08 A3003 RMK A01 T01760080  RH  053%=      5-min Rain = 0
KCL2 250237Z 05007KT 18/08 A3003 RMK A01 T01750080  RH  054%=      5-min Rain = 0
KCL2 250238Z 05007KT 17/08 A3003 RMK A01 T01740080  RH  054%=      5-min Rain = 0
KCL2 250239Z 05008KT 17/08 A3003 RMK A01 T01730080  RH  054%=      5-min Rain = 0
KCL2 250240Z 05008KT 17/08 A3004 RMK A01 T01720080  RH  055%=      5-min Rain = 0
KCL2 250241Z 06007KT 17/08 A3004 RMK A01 T01720080  RH  055%=      5-min Rain = 0
KCL2 250242Z 06008KT 17/08 A3004 RMK A01 T01720080  RH  055%=      5-min Rain = 0
KCL2 250243Z 06007KT 17/08 A3004 RMK A01 T01720080  RH  055%=      5-min Rain = 0
KCL2 250244Z 06007KT 17/08 A3004 RMK A01 T01720081  RH  055%=      5-min Rain = 0
KCL2 250245Z 06008KT 17/08 A3004 RMK A01 T01720081  RH  055%=      5-min Rain = 0
KCL2 250246Z 06008KT 17/08 A3004 RMK A01 T01720081  RH  055%=      5-min Rain = 0
KCL2 250247Z 06008KT 17/08 A3004 RMK A01 T01730082  RH  055%=      5-min Rain = 0
KCL2 250248Z 06008KT 17/08 A3004 RMK A01 T01730082  RH  055%=      5-min Rain = 0
KCL2 250249Z 06009KT 17/08 A3004 RMK A01 T01730082  RH  055%=      5-min Rain = 0
KCL2 250250Z 06008KT 17/08 A3004 RMK A01 T01730082  RH  055%=      5-min Rain = 0
KCL2 250251Z 06008KT 17/08 A3004 RMK A01 T01730082  RH  055%=      5-min Rain = 0
KCL2 250252Z 06009KT 17/08 A3004 RMK A01 T01730083  RH  055%=      5-min Rain = 0
KCL2 250253Z 06008KT 17/08 A3004 RMK A01 T01740083  RH  055%=      5-min Rain = 0
KCL2 250254Z 06007KT 17/08 A3004 RMK A01 T01730083  RH  055%=      5-min Rain = 0
KCL2 250255Z 06007KT 17/08 A3004 RMK A01 T01730083  RH  055%=      5-min Rain = 0
KCL2 250256Z 07009KT 17/08 A3004 RMK A01 T01720083  RH  056%=      5-min Rain = 0
KCL2 250257Z 07010KT 17/08 A3004 RMK A01 T01720083  RH  056%=      5-min Rain = 0
KCL2 250258Z 07009KT 17/08 A3004 RMK A01 T01740083  RH  055%=      5-min Rain = 0
KCL2 250259Z 07009KT 18/08 A3005 RMK A01 T01750083  RH  054%=      5-min Rain = 0
KCL2 250300Z 07009KT 18/08 A3005 RMK A01 T01770083  RH  054%=      5-min Rain = 0
KCL2 250301Z 07009KT 18/08 A3005 RMK A01 T01770083  RH  054%=      5-min Rain = 0
KCL2 250302Z 07008KT 18/08 A3005 RMK A01 T01780083  RH  054%=      5-min Rain = 0
KCL2 250303Z 07008KT 18/08 A3005 RMK A01 T01780083  RH  054%=      5-min Rain = 0
KCL2 250304Z 07007KT 18/08 A3005 RMK A01 T01780083  RH  054%=      5-min Rain = 0
KCL2 250305Z 07008KT 18/08 A3005 RMK A01 T01780083  RH  054%=      5-min Rain = 0
KCL2 250306Z 08007KT 18/08 A3005 RMK A01 T01780083  RH  054%=      5-min Rain = 0
KCL2 250307Z 07009KT 18/08 A3005 RMK A01 T01770083  RH  054%=      5-min Rain = 0
KCL2 250308Z 07009KT 18/08 A3005 RMK A01 T01770083  RH  054%=      5-min Rain = 0
KCL2 250309Z 08009KT 18/08 A3005 RMK A01 T01770083  RH  054%=      5-min Rain = 0
KCL2 250310Z 08008KT 18/08 A3005 RMK A01 T01770083  RH  054%=      5-min Rain = 0
KCL2 250311Z 08007KT 18/08 A3005 RMK A01 T01770083  RH  054%=      5-min Rain = 0
KCL2 250312Z 08007KT 18/08 A3005 RMK A01 T01770083  RH  054%=      5-min Rain = 0
KCL2 250313Z 08008KT 18/08 A3005 RMK A01 T01770083  RH  054%=      5-min Rain = 0
KCL2 250314Z 08007KT 18/08 A3005 RMK A01 T01760083  RH  054%=      5-min Rain = 0
KCL2 250315Z 07007KT 18/08 A3005 RMK A01 T01760083  RH  055%=      5-min Rain = 0
KCL2 250316Z 07008KT 18/08 A3005 RMK A01 T01750083  RH  055%=      5-min Rain = 0
KCL2 250317Z 07008KT 18/08 A3005 RMK A01 T01750083  RH  055%=      5-min Rain = 0
KCL2 250318Z 07008KT 18/08 A3005 RMK A01 T01760083  RH  054%=      5-min Rain = 0
KCL2 250319Z 07009KT 18/08 A3005 RMK A01 T01760083  RH  054%=      5-min Rain = 0
KCL2 250320Z 07009KT 18/08 A3005 RMK A01 T01760083  RH  054%=      5-min Rain = 0
KCL2 250321Z 07009KT 18/08 A3005 RMK A01 T01760082  RH  054%=      5-min Rain = 0
KCL2 250322Z 07008KT 18/08 A3005 RMK A01 T01760082  RH  054%=      5-min Rain = 0
KCL2 250323Z 08008KT 18/08 A3005 RMK A01 T01760082  RH  054%=      5-min Rain = 0
KCL2 250324Z 08007KT 18/08 A3006 RMK A01 T01760083  RH  054%=      5-min Rain = 0
KCL2 250325Z 08006KT 18/08 A3006 RMK A01 T01750083  RH  055%=      5-min Rain = 0
KCL2 250326Z 08006KT 17/08 A3006 RMK A01 T01740083  RH  055%=      5-min Rain = 0
KCL2 250327Z 08007KT 17/08 A3006 RMK A01 T01730083  RH  055%=      5-min Rain = 0
KCL2 250328Z 07008KT 17/08 A3006 RMK A01 T01730082  RH  055%=      5-min Rain = 0
KCL2 250329Z 08008KT 17/08 A3006 RMK A01 T01730082  RH  055%=      5-min Rain = 0
KCL2 250330Z 07008KT 17/08 A3006 RMK A01 T01740082  RH  055%=      5-min Rain = 0
KCL2 250331Z 07009KT 17/08 A3006 RMK A01 T01740083  RH  055%=      5-min Rain = 0
KCL2 250332Z 08008KT 17/08 A3006 RMK A01 T01740082  RH  055%=      5-min Rain = 0
KCL2 250333Z 08007KT 17/08 A3006 RMK A01 T01740082  RH  055%=      5-min Rain = 0
KCL2 250334Z 08007KT 17/08 A3006 RMK A01 T01730083  RH  055%=      5-min Rain = 0
KCL2 250335Z 07006KT 17/08 A3006 RMK A01 T01730083  RH  056%=      5-min Rain = 0
KCL2 250336Z 07007KT 17/08 A3006 RMK A01 T01720082  RH  055%=      5-min Rain = 0
KCL2 250337Z 07008KT 17/08 A3006 RMK A01 T01730082  RH  055%=      5-min Rain = 0
KCL2 250338Z 07008KT 17/08 A3006 RMK A01 T01730083  RH  055%=      5-min Rain = 0
KCL2 250339Z 07008KT 17/08 A3006 RMK A01 T01740083  RH  055%=      5-min Rain = 0
KCL2 250340Z 06007KT 17/08 A3006 RMK A01 T01730083  RH  055%=      5-min Rain = 0
KCL2 250341Z 06007KT 17/08 A3006 RMK A01 T01710083  RH  056%=      5-min Rain = 0
KCL2 250342Z 05007KT 17/08 A3006 RMK A01 T01680083  RH  057%=      5-min Rain = 0
KCL2 250343Z 06007KT 17/08 A3006 RMK A01 T01660083  RH  058%=      5-min Rain = 0
KCL2 250344Z 05007KT 16/08 A3006 RMK A01 T01630083  RH  059%=      5-min Rain = 0
KCL2 250345Z 06006KT 16/08 A3006 RMK A01 T01610083  RH  060%=      5-min Rain = 0
KCL2 250346Z 07007KT 16/08 A3006 RMK A01 T01590083  RH  060%=      5-min Rain = 0
KCL2 250347Z 07007KT 16/08 A3006 RMK A01 T01600083  RH  061%=      5-min Rain = 0
KCL2 250348Z 07007KT 16/08 A3006 RMK A01 T01600083  RH  060%=      5-min Rain = 0
KCL2 250349Z 06007KT 16/08 A3007 RMK A01 T01620083  RH  059%=      5-min Rain = 0
KCL2 250350Z 06006KT 16/08 A3007 RMK A01 T01640083  RH  059%=      5-min Rain = 0
KCL2 250351Z 06007KT 17/08 A3007 RMK A01 T01650083  RH  059%=      5-min Rain = 0
KCL2 250352Z 05007KT 16/08 A3007 RMK A01 T01640084  RH  059%=      5-min Rain = 0
KCL2 250353Z 04007KT 16/08 A3007 RMK A01 T01620083  RH  060%=      5-min Rain = 0
KCL2 250354Z 05007KT 16/08 A3007 RMK A01 T01590083  RH  060%=      5-min Rain = 0
KCL2 250355Z 04006KT 16/08 A3007 RMK A01 T01590084  RH  061%=      5-min Rain = 0
KCL2 250356Z 04006KT 16/08 A3007 RMK A01 T01570084  RH  062%=      5-min Rain = 0
KCL2 250357Z 05006KT 16/08 A3007 RMK A01 T01560084  RH  062%=      5-min Rain = 0
KCL2 250358Z 05006KT 16/08 A3007 RMK A01 T01560084  RH  062%=      5-min Rain = 0
KCL2 250359Z 05006KT 16/08 A3007 RMK A01 T01550084  RH  062%=      5-min Rain = 0
KCL2 250400Z 05006KT 16/08 A3007 RMK A01 T01550083  RH  062%=      5-min Rain = 0
KCL2 250401Z 05006KT 16/08 A3007 RMK A01 T01550083  RH  062%=      5-min Rain = 0
KCL2 250402Z 05006KT 16/08 A3007 RMK A01 T01550084  RH  063%=      5-min Rain = 0
KCL2 250403Z 05006KT 15/08 A3007 RMK A01 T01540084  RH  063%=      5-min Rain = 0
KCL2 250404Z 05006KT 15/08 A3007 RMK A01 T01530083  RH  063%=      5-min Rain = 0
KCL2 250405Z 06006KT 15/08 A3007 RMK A01 T01530084  RH  063%=      5-min Rain = 0
KCL2 250406Z 05006KT 15/08 A3007 RMK A01 T01530084  RH  063%=      5-min Rain = 0
KCL2 250407Z 05006KT 15/08 A3007 RMK A01 T01530084  RH  063%=      5-min Rain = 0
KCL2 250408Z 04006KT 15/08 A3007 RMK A01 T01520083  RH  064%=      5-min Rain = 0
KCL2 250409Z 04006KT 15/08 A3007 RMK A01 T01510083  RH  064%=      5-min Rain = 0
KCL2 250410Z 04006KT 15/08 A3007 RMK A01 T01510084  RH  064%=      5-min Rain = 0
KCL2 250411Z 03006KT 15/08 A3007 RMK A01 T01500084  RH  065%=      5-min Rain = 0
KCL2 250412Z 04006KT 15/08 A3008 RMK A01 T01500084  RH  065%=      5-min Rain = 0
KCL2 250413Z 05006KT 15/08 A3007 RMK A01 T01490084  RH  065%=      5-min Rain = 0
KCL2 250414Z 05005KT 15/08 A3007 RMK A01 T01500084  RH  065%=      5-min Rain = 0
KCL2 250415Z 05005KT 15/08 A3007 RMK A01 T01490083  RH  065%=      5-min Rain = 0
KCL2 250416Z 05006KT 15/08 A3008 RMK A01 T01480083  RH  065%=      5-min Rain = 0
KCL2 250417Z 04006KT 15/08 A3008 RMK A01 T01480083  RH  065%=      5-min Rain = 0
KCL2 250418Z 03006KT 15/08 A3008 RMK A01 T01480083  RH  065%=      5-min Rain = 0
KCL2 250419Z 03006KT 15/08 A3008 RMK A01 T01480083  RH  065%=      5-min Rain = 0
KCL2 250420Z 04006KT 15/08 A3008 RMK A01 T01470084  RH  066%=      5-min Rain = 0
KCL2 250421Z 04006KT 15/08 A3008 RMK A01 T01470084  RH  066%=      5-min Rain = 0
KCL2 250422Z 05006KT 15/08 A3007 RMK A01 T01460084  RH  066%=      5-min Rain = 0
KCL2 250423Z 05006KT 15/08 A3008 RMK A01 T01460084  RH  066%=      5-min Rain = 0
KCL2 250424Z 05006KT 15/08 A3007 RMK A01 T01470083  RH  066%=      5-min Rain = 0
KCL2 250425Z 05006KT 15/08 A3008 RMK A01 T01470083  RH  066%=      5-min Rain = 0
KCL2 250426Z 05006KT 15/08 A3008 RMK A01 T01470084  RH  066%=      5-min Rain = 0
KCL2 250427Z 05007KT 15/08 A3008 RMK A01 T01460084  RH  066%=      5-min Rain = 0
KCL2 250428Z 05007KT 15/08 A3008 RMK A01 T01450083  RH  066%=      5-min Rain = 0
KCL2 250429Z 05006KT 15/08 A3008 RMK A01 T01460084  RH  066%=      5-min Rain = 0
KCL2 250430Z 06006KT 15/08 A3008 RMK A01 T01460084  RH  066%=      5-min Rain = 0
KCL2 250431Z 06006KT 15/08 A3008 RMK A01 T01460084  RH  066%=      5-min Rain = 0
KCL2 250432Z 06007KT 15/08 A3008 RMK A01 T01470084  RH  066%=      5-min Rain = 0
KCL2 250433Z 06007KT 15/08 A3008 RMK A01 T01480084  RH  065%=      5-min Rain = 0
KCL2 250434Z 06007KT 15/08 A3008 RMK A01 T01500084  RH  065%=      5-min Rain = 0
KCL2 250435Z 06007KT 15/08 A3008 RMK A01 T01500084  RH  065%=      5-min Rain = 0
KCL2 250436Z 05007KT 15/09 A3008 RMK A01 T01520085  RH  064%=      5-min Rain = 0
KCL2 250437Z 05006KT 15/09 A3008 RMK A01 T01510085  RH  064%=      5-min Rain = 0
KCL2 250438Z 05006KT 15/09 A3008 RMK A01 T01500085  RH  065%=      5-min Rain = 0
KCL2 250439Z 05006KT 15/08 A3008 RMK A01 T01480084  RH  066%=      5-min Rain = 0
KCL2 250440Z 06006KT 15/09 A3008 RMK A01 T01470085  RH  066%=      5-min Rain = 0
KCL2 250441Z 05006KT 15/09 A3008 RMK A01 T01460085  RH  067%=      5-min Rain = 0
KCL2 250442Z 06006KT 15/09 A3008 RMK A01 T01460085  RH  067%=      5-min Rain = 0
KCL2 250443Z 05006KT 15/09 A3008 RMK A01 T01450085  RH  067%=      5-min Rain = 0
KCL2 250444Z 06006KT 15/09 A3008 RMK A01 T01450085  RH  067%=      5-min Rain = 0
KCL2 250445Z 06007KT 15/08 A3008 RMK A01 T01450084  RH  067%=      5-min Rain = 0
KCL2 250446Z 06007KT 15/09 A3008 RMK A01 T01460085  RH  067%=      5-min Rain = 0
KCL2 250447Z 05006KT 15/09 A3008 RMK A01 T01460085  RH  067%=      5-min Rain = 0
KCL2 250448Z 05007KT 15/09 A3008 RMK A01 T01460085  RH  067%=      5-min Rain = 0
KCL2 250449Z 06007KT 15/09 A3008 RMK A01 T01460085  RH  067%=      5-min Rain = 0
KCL2 250450Z 06007KT 15/09 A3008 RMK A01 T01460085  RH  067%=      5-min Rain = 0
KCL2 250451Z 06007KT 15/09 A3008 RMK A01 T01460086  RH  067%=      5-min Rain = 0
KCL2 250452Z 06008KT 15/09 A3008 RMK A01 T01460086  RH  067%=      5-min Rain = 0
KCL2 250453Z 06008KT 15/09 A3008 RMK A01 T01470086  RH  066%=      5-min Rain = 0
KCL2 250454Z 06008KT 15/09 A3008 RMK A01 T01480086  RH  066%=      5-min Rain = 0
KCL2 250455Z 06008KT 15/09 A3008 RMK A01 T01490086  RH  066%=      5-min Rain = 0
KCL2 250456Z 06008KT 15/09 A3008 RMK A01 T01490086  RH  066%=      5-min Rain = 0
KCL2 250457Z 06008KT 15/09 A3008 RMK A01 T01490086  RH  066%=      5-min Rain = 0
KCL2 250458Z 06008KT 15/09 A3008 RMK A01 T01500086  RH  066%=      5-min Rain = 0
KCL2 250459Z 06007KT 15/09 A3008 RMK A01 T01500086  RH  066%=      5-min Rain = 0
KCL2 250500Z 07009KT 15/09 A3008 RMK A01 T01490086  RH  066%=      5-min Rain = 0

Page generated in 0.0355 seconds.